GFSNIL_sfc_wetblb_000.txt.gz
Wetbulb
62.00 62.16 62.48 62.86 63.12 63.31 63.58 64.14 64.79 64.28 64.07 64.04 63.80 63.35 63.29 63.42 62.87 61.65 58.85 57.62 57.16 57.24
59.97 61.19 61.68 62.57 63.26 63.38 63.79 63.64 64.47 64.69 63.99 63.89 63.97 63.58 63.23 62.94 61.85 61.55 60.79 58.68 57.75 57.45
55.44 56.74 58.60 59.92 60.50 61.58 62.44 62.90 63.28 63.44 63.61 63.53 63.49 63.62 63.15 62.67 62.35 61.53 60.87 59.44 58.67 58.07
54.94 55.64 56.11 56.53 57.66 58.66 59.68 60.30 60.70 61.35 61.76 62.21 62.38 62.77 62.62 62.35 61.94 60.93 61.06 60.27 59.29 59.13
54.34 54.56 54.72 55.22 56.00 56.81 57.03 58.17 58.78 59.79 60.22 60.67 61.14 61.51 61.39 61.17 61.19 60.85 60.29 60.01 59.84 59.05
54.53 54.53 54.42 54.39 54.58 54.97 55.39 56.25 56.97 57.52 57.91 58.82 59.86 60.45 60.99 60.84 60.89 61.26 61.18 60.63 59.35 59.70
54.02 54.13 54.19 54.45 54.51 54.52 54.53 54.50 55.15 56.02 56.54 57.43 58.33 59.17 60.03 60.48 60.87 60.45 60.90 60.66 60.59 59.62
53.33 53.56 53.51 53.64 53.87 54.38 54.62 54.64 54.76 54.27 55.23 56.42 57.15 58.07 59.07 60.14 59.98 59.89 60.07 59.95 60.08 59.40
52.16 52.28 52.37 52.73 52.83 53.12 53.71 54.50 54.71 54.52 54.37 54.55 56.01 53.99 53.39 55.38 58.98 59.15 58.75 58.54 59.10 59.16
50.41 50.06 50.39 50.98 51.49 52.02 52.54 53.36 53.18 53.66 54.24 54.23 54.91 52.53 53.02 52.49 56.39 57.81 58.17 57.95 57.94 57.96
47.76 47.64 48.47 48.98 49.24 50.00 50.82 51.17 51.67 52.36 52.81 53.48 53.94 50.79 51.69 51.83 56.48 57.24 57.49 57.71 57.49 57.80
45.44 45.67 46.35 46.57 47.15 48.09 48.58 49.11 49.88 51.04 51.17 51.54 53.00 49.90 49.74 51.35 55.68 55.47 55.78 56.52 56.78 57.16
44.28 44.47 44.39 45.15 45.73 46.93 47.33 47.57 48.74 49.29 50.53 50.08 51.06 50.19 49.41 50.28 54.34 54.08 54.21 55.19 55.87 52.25
42.05 42.01 42.24 43.30 44.73 45.24 45.63 46.04 46.49 47.54 48.91 49.76 49.91 50.91 49.35 49.76 51.86 52.55 53.10 53.51 53.57 54.07

GFSNIL_sfc_wetblb_003.txt.gz
Wetbulb
59.77 61.15 61.92 62.48 62.95 63.17 63.48 64.30 65.63 65.06 64.68 64.58 65.09 65.18 65.07 64.51 64.20 64.09 63.38 62.35 60.80 59.49
56.15 56.35 57.63 59.31 60.78 62.13 62.99 63.57 64.14 64.77 65.00 64.94 64.63 64.63 64.30 63.49 63.15 63.60 63.32 62.13 60.87 59.50
55.64 55.80 56.19 56.49 56.39 57.54 58.78 60.01 61.07 62.00 62.86 63.54 64.07 64.18 63.95 63.51 63.33 62.72 62.57 62.06 61.17 59.90
55.77 55.91 55.99 55.59 55.61 56.00 56.33 56.75 57.24 58.02 59.03 60.05 61.03 62.20 62.59 62.54 62.69 62.13 61.98 62.02 61.23 60.24
55.76 55.69 55.38 55.38 55.72 55.89 55.31 55.80 55.76 56.12 56.40 57.13 58.19 59.67 60.10 60.48 61.09 60.95 60.95 61.10 60.85 60.15
54.88 54.92 54.83 55.00 55.42 55.71 55.56 55.52 55.60 55.45 55.00 55.17 55.86 56.76 58.25 59.09 59.97 60.34 60.49 60.66 60.37 60.24
53.13 53.46 53.68 54.16 54.40 54.55 54.86 54.55 54.83 55.43 55.41 55.15 55.13 55.59 56.14 56.97 58.00 58.73 59.60 60.19 60.04 60.22
52.86 52.85 52.55 52.71 53.03 53.34 53.67 54.14 54.70 54.65 54.86 55.24 55.30 54.85 55.25 55.98 56.44 56.97 57.72 58.92 59.45 59.53
50.60 50.47 50.34 50.51 50.69 51.11 51.46 52.13 52.76 53.11 53.66 53.89 54.34 52.15 51.37 52.07 54.24 54.84 55.64 56.02 57.61 58.41
47.77 47.49 47.99 48.82 49.04 49.21 49.43 50.24 50.18 51.03 51.63 52.06 53.27 51.73 51.42 50.53 52.76 53.12 53.88 54.97 55.70 56.14
46.12 45.74 46.30 46.72 46.75 47.06 47.83 48.31 48.60 49.18 50.16 50.53 51.59 50.19 49.77 49.59 51.68 52.63 53.33 54.36 54.90 55.33
42.78 43.20 43.57 43.52 43.57 44.44 45.57 46.23 47.04 47.79 48.43 48.88 50.11 49.04 48.57 49.03 50.65 50.74 51.71 53.13 53.78 54.20
41.71 41.62 41.32 41.91 42.27 43.27 43.73 44.75 45.93 46.21 47.40 47.78 47.98 48.01 47.99 47.91 48.40 47.25 48.44 50.09 51.11 50.61
39.86 39.93 39.98 40.13 41.54 41.13 41.13 42.22 43.86 44.16 44.95 44.81 45.01 45.93 46.75 46.91 46.55 46.20 46.38 47.13 47.16 49.73

GFSNIL_sfc_wetblb_006.txt.gz
Wetbulb
51.24 51.50 52.71 53.95 54.61 56.19 57.47 58.73 59.93 60.33 60.61 60.84 61.82 62.27 62.81 63.22 63.00 62.84 62.44 61.44 60.60 60.08
51.01 50.64 50.59 51.16 51.42 52.29 53.03 55.12 55.06 56.21 58.33 59.65 61.67 62.04 62.00 61.67 62.21 62.19 62.34 61.64 61.46 61.45
51.10 51.37 51.25 51.01 50.60 50.84 51.18 51.70 51.96 52.49 53.13 54.27 56.21 58.23 59.80 60.93 61.29 60.96 61.44 61.50 61.28 61.38
50.65 51.25 51.25 51.16 51.60 51.90 52.13 51.91 51.73 51.58 51.52 51.76 52.39 53.73 54.82 56.46 58.13 59.27 59.91 60.34 60.41 60.40
50.26 50.19 49.72 49.96 50.82 51.72 51.46 52.30 52.35 52.42 52.47 52.55 52.11 52.42 52.49 53.38 54.68 55.44 56.05 57.54 58.88 58.98
49.16 48.94 48.69 49.44 50.48 51.04 50.93 50.92 51.31 51.76 51.67 52.09 52.54 52.51 52.42 52.63 52.95 53.57 54.70 55.64 56.08 57.20
47.87 47.63 47.67 48.16 48.52 48.87 49.24 49.12 49.53 49.98 50.40 50.98 51.63 52.07 52.17 52.03 51.38 52.01 53.05 54.06 54.88 55.78
47.08 46.62 46.43 46.17 46.48 47.16 47.47 47.79 48.01 48.01 48.39 48.99 49.85 50.89 50.66 50.59 50.60 50.19 50.39 51.31 52.27 53.25
45.10 44.83 44.52 44.52 44.83 45.42 45.53 45.63 45.87 45.94 46.79 46.71 48.64 49.44 49.93 50.04 49.31 49.00 49.09 49.31 50.55 51.66
42.06 41.59 42.02 42.64 42.45 42.32 41.77 42.22 43.06 44.02 44.93 45.21 45.99 48.56 49.62 49.38 47.84 47.97 47.88 48.46 49.15 50.06
39.76 39.27 39.53 39.55 39.31 39.42 40.06 40.07 40.28 41.56 43.19 43.74 45.42 47.55 48.10 47.63 46.09 45.01 45.87 46.51 46.58 48.60
37.72 37.05 37.27 36.92 36.68 37.03 37.87 38.06 38.32 39.63 40.69 41.97 42.82 44.86 45.81 44.02 42.37 43.21 43.63 45.74 46.00 46.63
35.71 35.36 34.75 34.92 34.85 35.62 36.32 36.54 37.63 37.28 39.33 41.66 39.74 42.80 44.05 42.94 41.59 39.75 41.46 41.92 42.10 44.49
33.77 33.56 34.01 33.88 34.19 33.96 33.87 35.10 34.98 35.48 36.70 37.06 37.97 37.80 42.31 42.32 40.15 39.54 37.94 36.72 38.62 41.15

GFSNIL_sfc_wetblb_009.txt.gz
Wetbulb
49.09 49.17 49.27 49.01 49.09 49.52 50.25 51.12 51.70 52.00 52.97 54.32 57.33 60.80 62.01 62.14 62.13 62.28 61.57 61.52 61.67 61.21
49.10 48.99 48.98 48.59 48.75 49.33 50.06 52.18 51.45 50.91 50.88 51.71 52.17 53.02 54.65 57.39 59.43 60.70 61.20 61.10 61.30 61.07
48.44 48.95 48.87 48.86 48.55 49.29 50.75 50.96 51.08 51.05 51.19 51.19 51.15 51.44 51.44 51.92 53.06 54.08 55.96 58.30 58.47 58.89
48.12 48.47 48.98 48.85 49.05 49.38 49.94 50.16 50.10 50.30 50.44 50.62 50.91 51.36 50.91 50.86 51.43 51.32 52.31 53.54 54.41 55.34
47.86 47.46 46.81 47.01 47.36 48.04 47.89 48.59 48.72 48.92 48.92 48.75 49.25 49.84 49.91 50.10 50.69 50.34 50.42 51.49 52.48 53.21
46.18 45.39 44.60 44.76 45.64 45.97 45.97 46.24 46.73 47.09 46.73 46.96 47.60 47.75 48.67 48.92 49.05 48.63 49.61 49.84 50.02 50.84
44.99 43.89 43.75 44.11 44.30 44.35 44.72 44.64 44.90 44.60 44.50 45.43 46.39 46.53 47.13 47.03 46.63 47.41 48.77 49.10 49.19 49.50
42.18 41.49 41.41 41.70 42.19 42.58 42.50 43.11 42.58 41.75 42.85 43.04 44.12 46.02 45.35 46.00 46.85 47.57 47.35 47.53 47.25 48.04
39.65 39.54 39.24 39.25 39.38 39.77 39.70 39.73 39.81 39.94 40.24 40.10 43.99 45.22 47.05 47.84 44.77 44.18 42.15 42.01 44.14 45.82
37.61 37.20 37.10 37.34 37.31 36.95 36.54 36.64 36.41 37.72 37.74 38.78 39.32 44.33 46.70 46.99 40.85 39.81 39.83 41.72 41.43 43.69
35.13 34.75 35.05 34.85 34.45 34.29 34.56 34.05 34.96 34.86 35.88 36.26 37.65 43.45 45.25 43.79 38.97 38.38 39.01 40.38 40.33 41.23
32.77 32.33 32.53 32.02 31.87 32.50 32.68 32.84 32.66 33.90 34.28 34.07 35.49 41.57 41.25 39.35 37.67 36.87 37.08 39.31 39.67 37.58
31.52 31.17 30.48 30.50 30.53 31.45 31.54 31.80 32.68 31.88 32.85 36.10 33.55 38.01 39.08 37.83 36.80 34.74 36.00 37.52 37.12 38.96
30.33 29.67 30.22 30.03 30.13 30.22 30.05 30.25 29.64 30.49 31.47 31.61 33.36 32.70 36.39 37.23 34.73 34.46 35.51 35.22 35.29 35.62

GFSNIL_sfc_wetblb_012.txt.gz
Wetbulb
47.68 47.78 47.68 47.28 47.20 47.53 47.87 48.48 49.09 49.66 49.90 50.16 50.68 50.84 51.02 51.56 53.52 56.09 58.08 58.31 58.67 58.67
46.95 47.04 46.92 46.77 47.03 47.37 47.83 49.77 49.16 48.74 48.72 49.42 49.75 50.13 50.23 50.13 50.00 50.73 51.82 52.63 54.02 55.84
46.58 46.47 46.29 46.01 45.63 46.06 46.98 47.35 47.32 47.42 47.79 48.07 48.02 48.28 48.47 48.57 49.48 49.37 49.93 50.78 50.61 51.51
45.86 45.50 44.97 44.33 44.50 44.33 44.70 45.08 45.29 45.86 46.17 46.10 45.83 46.39 46.40 46.54 47.54 47.57 47.72 47.72 48.73 49.37
44.54 43.37 42.41 42.31 42.80 43.32 42.56 43.25 43.60 43.96 43.33 42.80 43.67 44.93 44.81 44.52 45.69 44.43 44.75 46.00 47.33 47.79
41.89 40.47 39.56 39.90 40.78 41.06 41.08 40.79 41.35 40.89 40.20 40.40 42.49 41.05 42.66 44.15 43.11 44.03 45.28 46.23 46.97 46.77
38.93 37.88 37.87 38.30 38.50 38.64 39.18 38.55 38.38 38.05 38.24 40.03 38.95 39.45 42.52 41.06 42.52 44.57 44.74 45.74 43.20 42.58
37.40 37.12 36.79 36.55 36.42 36.78 36.68 36.53 36.68 35.76 35.94 38.29 36.51 39.35 39.00 39.19 41.34 42.37 39.63 39.32 39.04 41.09
34.95 34.48 34.13 34.13 34.27 34.37 34.02 34.33 34.14 33.86 34.60 34.32 35.39 40.95 41.64 41.53 40.08 37.62 36.91 36.25 36.81 39.19
32.70 32.28 32.21 32.59 32.43 31.92 31.67 32.20 31.72 32.26 32.39 31.91 33.84 38.50 40.90 42.51 36.63 34.42 34.26 35.50 35.20 36.06
31.26 30.68 30.84 30.60 30.14 29.89 30.36 30.01 30.32 30.64 31.17 31.34 32.42 37.19 39.21 39.40 33.76 32.51 33.39 34.92 34.73 35.55
29.89 29.43 29.37 28.69 28.54 29.05 29.10 29.11 29.52 30.42 30.02 29.68 30.70 36.31 37.10 35.88 32.25 32.43 32.86 33.92 34.91 36.47
29.13 28.72 27.89 27.76 27.84 28.81 28.75 29.09 29.82 29.26 29.52 31.61 29.85 34.34 35.64 34.83 32.47 31.20 31.88 33.29 35.06 36.91
28.06 27.50 27.71 28.00 28.04 27.94 27.70 28.09 27.34 27.73 28.32 28.97 30.10 31.11 35.30 35.80 32.71 31.99 32.23 32.12 31.93 32.72

GFSNIL_sfc_wetblb_015.txt.gz
Wetbulb
45.98 45.94 45.59 45.17 45.07 44.88 45.24 45.92 45.80 46.57 46.80 47.04 47.75 47.60 47.52 48.04 48.35 48.85 48.79 48.65 50.02 50.77
44.74 44.38 43.92 43.85 43.80 43.99 44.10 45.93 45.26 44.96 44.95 45.72 45.67 45.35 45.46 45.77 45.55 46.31 47.34 47.78 48.22 48.00
43.73 43.28 42.91 42.57 41.95 42.18 42.68 42.89 42.91 43.15 43.40 43.12 42.48 42.97 43.66 43.85 44.33 44.67 45.87 44.95 44.91 45.90
42.02 41.49 40.91 40.11 40.08 40.09 40.19 40.06 40.07 40.60 39.82 39.11 39.57 41.27 39.68 39.89 42.12 42.80 41.67 43.09 44.21 44.93
39.60 38.35 37.31 37.55 37.94 38.36 37.71 38.27 37.89 37.65 36.32 36.30 37.44 38.71 36.37 37.07 40.46 37.97 40.04 42.01 43.31 44.70
36.85 36.08 35.54 35.70 36.12 36.11 35.81 35.22 35.25 35.29 34.27 34.45 35.60 36.26 34.56 37.34 36.22 36.78 38.15 42.14 41.93 38.37
34.98 34.41 34.31 34.06 33.95 33.98 34.08 33.04 33.39 33.35 33.29 33.54 34.61 33.46 34.65 36.17 35.39 36.44 38.32 37.27 37.24 36.91
33.44 32.93 32.30 31.79 31.79 32.08 32.02 32.04 32.22 32.05 31.95 32.53 32.34 33.85 34.26 34.89 35.30 35.97 33.87 33.52 33.38 34.84
31.30 30.93 30.30 30.34 30.54 30.52 30.26 30.29 30.46 30.19 30.54 30.27 32.33 35.81 37.20 36.89 35.14 34.08 31.59 30.49 32.06 34.43
30.15 29.56 29.26 29.45 29.20 28.70 28.36 28.53 28.38 28.74 29.36 29.11 29.89 35.22 36.89 37.54 33.87 31.71 30.99 31.24 31.83 32.40
28.87 28.27 28.33 27.74 27.29 27.03 27.76 27.45 27.56 28.03 28.75 28.68 29.89 34.53 35.79 36.27 32.24 31.44 31.48 31.70 31.94 31.98
27.49 27.23 27.22 26.44 26.26 26.93 27.13 26.87 27.14 28.25 27.96 27.42 28.09 33.53 34.66 34.06 31.48 31.09 30.99 32.14 32.64 32.99
26.92 26.55 25.85 25.40 25.75 26.84 26.59 26.93 27.80 27.14 27.50 29.46 27.67 31.99 34.29 33.69 31.47 30.24 30.77 32.20 32.57 35.10
26.29 25.38 25.36 25.24 25.83 26.10 25.71 26.03 25.37 25.75 26.44 27.06 28.86 29.60 33.84 34.53 31.75 30.94 30.98 31.39 29.96 30.90

GFSNIL_sfc_wetblb_018.txt.gz
Wetbulb
43.48 43.33 42.70 42.00 41.96 41.76 41.86 42.50 42.18 42.89 43.20 43.17 43.28 42.16 42.51 43.26 43.98 44.22 44.30 44.40 45.76 45.69
41.48 40.89 40.37 40.16 40.17 40.27 40.30 41.84 40.48 40.44 40.25 39.78 38.97 39.47 40.41 39.51 38.67 40.26 42.45 42.24 41.93 42.92
39.51 39.07 38.47 38.06 37.29 37.49 37.87 38.20 37.53 36.92 36.70 35.52 36.05 36.49 38.31 35.85 35.80 38.30 38.44 37.98 40.36 41.50
37.15 36.62 36.03 35.44 35.33 35.13 35.30 35.30 35.03 34.98 34.31 33.61 33.85 34.22 35.94 33.07 34.27 35.18 34.71 36.39 37.15 41.22
35.32 34.54 33.31 33.17 33.56 33.98 32.85 33.24 32.78 33.28 32.47 32.44 32.74 33.34 32.44 31.44 33.84 33.77 33.68 35.01 36.85 35.90
32.69 31.98 31.11 31.11 31.88 32.11 31.81 31.43 31.33 31.61 31.12 31.04 31.74 31.47 31.15 31.81 32.73 33.23 34.09 34.89 33.40 32.49
30.77 30.29 30.09 30.27 30.49 30.71 30.73 29.61 29.90 30.17 30.28 30.41 30.78 30.71 31.58 32.41 32.68 33.18 34.38 33.65 31.92 31.10
30.83 29.97 29.47 29.20 29.18 29.28 29.07 29.26 29.33 29.24 29.29 29.64 30.21 31.84 32.04 32.77 32.73 32.52 31.89 31.45 31.44 32.03
29.51 29.02 28.58 28.23 28.12 27.81 27.86 27.83 27.94 27.81 27.94 27.99 30.37 34.13 35.78 35.01 32.24 31.75 30.56 29.93 30.84 31.67
28.39 27.84 27.51 27.49 27.03 26.73 26.30 26.21 26.42 26.65 27.13 27.05 27.94 33.62 35.16 35.66 31.92 30.65 30.30 30.27 30.40 30.86
27.17 26.54 26.53 25.78 25.07 24.76 25.74 25.46 25.59 25.97 26.65 26.75 28.04 32.93 34.21 34.85 31.12 30.33 30.40 30.62 30.83 30.76
25.94 25.39 25.24 24.48 24.21 24.91 25.18 25.17 25.34 26.39 26.10 25.46 26.23 32.08 33.34 33.01 30.03 29.72 29.68 30.88 31.17 32.81
25.45 24.63 23.72 23.40 23.90 24.66 24.64 25.42 26.20 25.41 25.58 27.66 25.85 30.72 33.25 32.52 29.91 28.77 29.01 29.89 32.12 33.09
24.73 23.61 23.71 23.49 23.54 24.51 24.18 24.39 23.65 23.84 24.69 25.11 26.86 28.24 32.81 33.38 30.32 29.12 29.37 29.95 28.22 29.15

GFSNIL_sfc_wetblb_021.txt.gz
Wetbulb
44.26 43.41 42.31 41.54 41.00 40.56 40.44 41.01 41.03 40.39 40.16 39.39 38.77 39.34 39.68 41.62 40.18 40.71 41.61 43.88 40.27 41.12
41.29 40.32 39.52 39.38 39.50 39.15 39.29 38.67 38.48 38.59 37.99 37.63 37.42 37.55 37.89 38.89 36.63 37.66 40.57 38.46 38.79 39.89
38.68 38.23 38.01 37.89 36.96 37.00 37.27 37.20 36.60 36.46 36.57 36.11 36.14 36.24 36.37 36.19 35.95 36.63 37.42 37.28 37.43 39.04
37.06 36.56 36.34 35.87 35.84 35.78 35.90 35.64 35.04 34.89 34.85 34.53 34.42 34.95 34.74 34.31 34.96 34.85 35.45 36.55 36.79 38.06
35.75 35.21 34.49 34.25 34.50 34.89 34.13 34.47 33.97 33.75 33.54 33.44 33.40 33.82 33.19 32.95 33.94 33.99 34.11 34.98 36.36 35.32
33.74 33.41 33.12 33.16 33.46 33.51 33.20 33.06 33.14 32.78 32.21 32.14 32.39 32.47 32.85 33.52 33.88 34.36 34.59 34.70 34.49 33.47
33.06 32.94 32.59 32.61 32.49 32.36 32.47 31.93 31.91 31.88 31.62 31.57 31.63 31.84 32.78 33.69 34.06 34.09 34.37 34.25 33.78 33.12
32.47 32.35 32.04 31.71 31.53 31.55 31.41 31.18 31.12 30.66 30.81 30.98 31.03 31.96 33.02 33.89 33.65 33.26 32.91 33.20 33.08 33.37
31.49 31.19 30.87 30.81 30.50 30.30 30.15 30.25 29.97 29.69 29.54 29.58 30.49 33.00 34.70 34.68 33.50 32.86 32.16 31.65 32.41 33.09
30.21 29.83 29.90 29.82 29.32 29.02 28.82 29.11 28.77 28.92 29.12 28.85 29.49 32.56 34.12 34.67 33.17 32.24 31.71 31.42 32.01 32.23
29.13 28.85 29.07 28.56 28.14 28.16 28.59 28.29 28.15 28.25 28.57 28.41 29.03 31.82 33.21 34.01 32.37 31.81 31.47 31.58 31.88 31.91
28.29 27.82 27.69 27.33 27.37 27.83 28.21 27.86 27.88 28.02 27.79 27.20 27.60 31.31 32.35 32.88 31.51 30.89 30.79 31.77 31.89 32.50
27.81 27.22 26.71 27.01 27.11 27.79 27.89 27.35 27.68 26.97 27.26 28.15 27.34 30.19 32.41 32.36 30.84 29.78 30.00 30.95 31.83 32.54
27.32 26.40 27.34 27.16 27.16 27.04 26.63 26.51 25.80 25.77 26.65 27.11 28.42 29.45 32.20 32.66 30.47 29.73 29.76 30.40 29.46 30.46

GFSNIL_sfc_wetblb_024.txt.gz
Wetbulb
47.68 46.40 45.17 44.05 43.46 42.46 41.88 41.42 41.44 41.22 41.32 40.82 40.65 40.65 40.80 41.13 41.57 40.75 40.41 41.99 40.51 40.17
44.76 43.72 42.79 42.14 41.76 40.81 40.45 39.83 40.09 40.15 39.90 39.90 39.66 39.51 39.57 39.57 39.02 39.10 39.76 39.73 39.84 39.55
42.01 41.19 40.75 40.38 39.37 39.43 39.41 39.20 38.94 38.72 38.70 38.60 38.52 38.48 38.44 38.24 38.23 37.86 38.31 38.56 38.34 38.76
40.32 39.42 39.21 38.80 38.61 38.43 38.48 38.14 37.67 37.44 37.24 37.18 37.05 37.35 37.07 36.93 36.94 36.63 37.12 37.93 37.63 37.28
38.99 38.41 38.12 37.07 37.60 37.73 37.22 37.51 36.97 36.71 36.41 36.25 36.15 36.29 35.75 35.45 36.12 36.03 36.00 36.44 36.45 36.09
37.61 37.11 35.95 36.14 36.84 36.79 36.52 36.45 36.45 36.01 35.31 35.07 35.12 34.95 35.29 35.37 35.68 36.06 36.21 36.13 35.55 35.17
36.07 36.10 36.43 36.44 36.10 35.87 35.90 35.50 35.28 35.16 34.78 34.61 34.51 34.50 34.66 34.82 35.33 35.62 35.80 35.78 35.58 34.87
35.80 35.91 35.90 35.53 35.46 35.43 35.20 34.96 34.84 34.16 34.20 34.29 34.10 33.98 33.67 34.30 34.50 34.51 34.41 35.08 34.60 34.65
34.97 35.02 34.88 34.78 34.52 34.53 34.44 34.46 34.18 33.72 33.45 33.14 33.27 34.14 34.22 34.33 33.62 33.82 33.67 32.79 33.49 34.06
33.79 33.73 33.93 33.97 33.71 33.53 33.43 33.83 33.46 33.20 32.98 32.46 32.75 33.54 33.67 34.16 33.31 33.36 33.05 32.80 32.62 32.82
33.17 32.91 33.28 33.13 33.11 33.29 33.38 32.99 32.65 32.48 32.21 31.84 31.93 32.66 32.99 33.43 33.25 32.91 32.86 32.83 32.78 32.32
32.64 32.12 32.25 32.22 32.36 32.73 32.40 32.30 32.08 31.83 31.31 30.74 30.97 32.01 32.21 32.79 32.35 31.66 31.79 32.46 32.68 32.77
32.35 31.82 31.60 31.98 31.84 32.29 32.17 31.33 31.43 30.97 31.29 31.11 30.45 32.08 32.60 32.74 31.92 30.39 31.15 31.74 32.19 33.21
32.20 31.78 31.91 31.91 32.05 31.64 31.12 30.81 30.55 30.10 30.69 30.97 31.57 31.70 32.68 32.82 31.25 30.72 30.70 31.14 31.33 31.99

GFSNIL_sfc_wetblb_027.txt.gz
Wetbulb
48.42 47.28 45.97 44.75 43.75 42.82 42.01 41.41 41.53 41.10 41.00 40.82 40.70 40.40 40.86 40.95 41.53 41.44 40.39 39.90 39.90 39.76
45.62 44.51 43.33 42.73 42.23 41.51 41.17 40.41 40.30 40.35 39.71 39.82 39.70 39.47 39.78 39.59 38.94 39.11 39.00 38.95 39.06 38.77
43.36 42.51 41.92 41.44 40.13 39.80 39.84 39.60 39.22 38.94 38.70 38.59 38.64 38.50 38.29 38.11 38.38 37.63 37.96 38.14 37.97 37.97
41.81 41.01 40.74 39.73 39.02 38.84 38.86 38.53 38.14 37.86 37.62 37.47 37.27 37.32 36.89 36.69 36.88 36.29 36.62 37.38 37.18 36.93
40.80 40.21 38.87 38.12 38.17 38.20 37.66 38.05 37.66 37.29 36.88 36.63 36.43 36.30 35.56 35.14 35.71 35.15 35.22 35.98 36.02 35.73
39.11 38.34 38.04 37.64 37.62 37.61 37.18 37.04 37.11 36.71 35.90 35.55 35.54 35.25 35.15 35.14 34.47 34.81 35.24 35.35 35.09 34.88
37.91 37.57 37.24 37.24 37.02 36.80 36.76 36.29 36.17 35.95 35.48 35.33 35.14 35.12 34.94 34.24 33.84 34.21 34.55 35.02 35.01 34.98
37.17 37.05 36.81 36.54 36.33 36.33 36.18 36.04 35.99 35.31 35.22 35.30 35.12 34.75 34.34 33.74 33.20 33.07 33.13 34.03 34.62 34.66
36.12 35.95 35.87 35.72 35.38 35.43 35.42 35.48 35.36 34.96 34.70 34.21 34.27 35.98 35.77 34.39 32.62 32.60 32.52 32.51 33.38 33.93
34.97 34.72 34.87 34.97 34.72 34.62 34.56 34.94 34.51 34.43 34.20 33.36 33.45 35.26 35.12 34.66 32.31 32.11 32.45 32.29 32.26 32.55
34.31 33.92 34.19 34.04 34.01 34.29 34.35 33.83 33.57 33.45 33.32 32.65 32.85 34.56 34.26 33.98 32.45 32.19 32.31 32.25 32.27 31.76
33.69 33.10 33.19 32.94 33.14 33.60 33.27 33.01 32.60 32.86 32.33 31.83 31.78 33.71 33.94 33.33 31.86 31.39 31.15 31.93 32.06 31.79
33.59 32.96 32.55 32.73 32.67 33.17 33.09 32.43 32.54 31.94 32.26 32.84 31.27 33.69 34.13 33.41 31.66 29.99 30.18 31.05 31.77 33.35
33.50 32.96 32.95 32.64 32.88 32.65 32.24 31.82 31.31 30.86 31.53 31.65 32.47 32.47 34.10 34.01 31.39 30.26 29.42 29.63 29.69 30.81

GFSNIL_sfc_wetblb_030.txt.gz
Wetbulb
42.31 40.73 39.49 38.30 37.62 36.82 36.51 36.22 36.53 36.23 36.02 35.93 36.33 35.86 35.35 35.28 35.52 35.07 33.60 32.58 33.18 34.34
39.13 38.44 37.46 36.85 36.56 36.21 35.90 37.66 35.63 35.21 34.72 34.86 35.02 34.92 34.41 33.79 32.92 32.79 32.59 32.23 32.48 33.23
37.44 37.05 36.50 35.78 34.69 34.75 34.75 34.90 34.41 34.10 33.91 34.04 34.13 33.77 32.82 32.24 32.80 32.52 32.04 33.86 32.83 33.36
36.39 36.20 35.36 34.36 34.07 33.92 34.17 33.93 33.85 33.71 33.48 33.05 32.77 32.54 31.74 31.29 32.33 31.79 30.97 32.00 32.67 32.87
36.10 34.98 33.87 33.46 33.75 34.12 33.19 33.36 33.33 33.10 32.76 32.47 32.51 31.95 30.78 30.56 31.12 29.97 30.35 31.22 31.63 31.68
34.48 33.69 32.77 32.95 33.48 33.74 32.94 32.30 32.51 32.66 31.91 31.87 32.27 31.56 30.89 31.51 29.87 30.56 30.75 31.07 30.95 31.07
33.17 32.92 32.59 32.86 32.99 33.04 32.38 31.85 31.65 31.85 32.02 32.11 32.04 31.94 32.11 30.94 30.55 30.12 30.83 31.26 31.18 31.18
33.42 33.17 33.12 32.79 32.68 32.50 32.33 32.19 31.98 31.77 31.53 31.30 31.83 33.34 31.92 31.85 30.35 29.54 29.72 30.25 30.91 31.83
33.25 32.91 32.44 32.04 31.73 31.13 30.92 30.65 30.76 30.29 30.20 29.47 32.66 35.87 36.29 34.86 30.58 29.64 29.25 28.88 30.18 30.82
32.60 32.27 31.59 31.27 30.42 29.82 29.20 29.22 28.73 28.59 28.74 27.97 28.22 35.35 35.99 35.74 31.08 29.48 29.16 29.15 29.29 29.62
32.08 30.86 30.24 29.31 28.64 28.35 28.54 27.70 27.33 27.51 27.81 27.55 29.82 34.86 35.14 35.25 30.49 29.43 29.26 29.46 29.33 28.94
30.45 29.15 28.91 27.83 27.27 27.57 27.14 26.71 26.46 28.02 27.56 26.48 27.55 33.84 34.72 33.72 29.71 29.34 28.84 29.77 29.76 30.04
29.79 28.72 27.49 27.10 26.80 27.28 26.99 28.10 28.98 28.40 27.29 29.62 27.41 32.69 34.69 33.55 30.30 28.47 28.31 28.88 29.64 32.36
29.16 28.10 27.80 27.19 26.82 26.45 26.08 26.65 25.40 26.16 26.07 25.87 27.68 29.08 33.96 33.91 30.24 28.73 28.28 28.20 27.47 28.52

GFSNIL_sfc_wetblb_033.txt.gz
Wetbulb
38.46 37.50 36.52 36.07 35.28 34.69 34.34 34.04 33.93 33.68 33.49 33.48 33.88 33.51 32.91 32.66 32.51 32.57 30.81 29.91 29.97 31.27
36.39 35.89 34.90 34.44 34.29 33.81 33.61 36.21 33.28 32.79 32.54 32.77 32.78 32.50 31.82 31.33 30.50 30.33 30.02 29.55 29.71 30.10
34.84 34.65 33.97 33.45 32.62 32.71 32.70 32.87 32.50 32.44 32.04 31.94 31.77 31.48 30.58 29.99 30.55 29.60 29.51 30.97 29.16 30.42
33.97 33.67 33.24 32.63 32.20 32.02 32.07 31.97 32.00 31.87 31.46 31.10 30.95 30.74 29.62 29.09 30.13 29.02 28.50 28.80 30.03 30.02
33.72 32.96 31.89 31.67 31.94 32.36 31.50 31.54 31.38 31.42 31.15 30.88 31.07 30.54 29.18 28.51 28.73 27.80 27.74 28.57 29.04 29.24
32.37 31.62 30.94 31.14 31.88 31.88 31.24 31.11 31.03 31.05 30.61 31.01 31.64 30.28 29.39 29.00 28.05 28.26 28.17 28.40 28.66 28.95
31.50 31.29 31.16 31.44 31.59 31.48 31.09 30.53 30.48 31.09 31.12 31.00 30.24 30.13 30.08 29.17 28.67 27.92 28.56 29.27 29.31 29.13
31.86 31.97 31.79 31.30 31.02 30.83 30.86 31.04 30.78 30.36 29.55 29.30 29.96 32.18 31.70 31.34 29.48 27.48 27.32 28.20 29.41 30.03
32.37 31.81 30.92 30.62 30.52 29.79 29.73 29.28 28.68 27.93 27.82 27.27 30.98 35.02 36.04 34.74 30.50 28.35 27.59 27.45 28.95 29.39
31.46 31.20 30.80 30.07 29.22 28.47 27.51 26.69 26.25 26.52 26.51 25.93 26.13 34.80 35.66 35.66 31.13 28.61 27.17 27.64 28.11 28.69
31.19 30.02 29.32 28.39 26.75 26.09 26.10 25.49 25.42 25.51 25.76 25.33 27.90 34.25 34.67 35.11 30.17 27.71 27.14 27.57 27.98 27.84
29.80 28.59 27.82 26.14 25.39 25.51 25.23 24.78 24.42 25.66 25.18 24.19 25.07 32.86 33.95 33.09 29.10 28.42 27.83 28.80 28.53 29.99
29.05 27.66 26.04 25.34 25.10 25.44 24.75 25.66 26.38 26.14 24.99 27.57 24.28 30.87 33.13 32.25 29.00 27.30 27.20 28.53 28.92 31.37
27.90 26.69 26.22 25.45 24.79 24.55 24.21 24.16 22.93 22.73 22.84 23.25 25.22 26.82 32.58 32.84 29.26 27.75 28.49 27.37 26.92 27.12

GFSNIL_sfc_wetblb_036.txt.gz
Wetbulb
36.61 36.24 35.22 34.74 34.13 33.54 33.24 32.90 32.46 31.91 31.64 31.63 32.00 31.54 30.88 30.68 30.41 30.54 28.78 27.76 27.61 28.90
34.90 34.62 33.71 33.14 32.99 32.54 32.56 34.96 31.67 31.16 30.95 30.91 30.92 30.69 30.12 29.69 28.77 28.42 28.05 27.40 27.63 27.64
33.39 33.10 32.56 32.25 31.53 31.68 31.55 31.53 31.06 30.73 30.42 30.33 30.33 30.13 29.19 28.52 28.92 27.93 27.75 29.61 27.45 27.38
32.49 32.28 31.95 31.41 31.04 31.05 30.84 30.54 30.45 30.29 30.07 29.82 29.69 29.53 28.36 27.97 28.52 27.51 27.08 27.40 27.60 28.03
32.23 31.53 30.84 30.71 30.88 31.03 29.97 30.09 29.95 29.93 29.77 29.62 29.85 29.39 28.20 27.30 27.14 26.56 26.63 27.05 27.14 27.33
30.99 30.54 30.02 30.19 30.66 30.66 29.85 29.39 29.56 29.81 29.50 29.56 29.96 29.07 28.16 27.42 27.18 27.20 27.10 27.02 26.88 27.35
30.52 30.16 30.10 30.32 30.18 30.30 29.61 29.18 29.48 29.41 29.36 29.22 28.54 28.34 28.46 28.58 27.82 27.25 27.64 27.81 28.04 27.65
30.81 30.75 30.49 30.10 29.83 29.40 29.63 29.28 28.84 28.34 27.97 27.37 28.25 30.90 30.91 30.36 28.53 26.95 26.34 26.93 27.61 28.74
30.99 30.53 30.19 29.26 28.89 28.94 28.30 27.58 27.33 26.37 25.99 25.64 29.65 33.88 35.68 34.22 29.93 28.21 26.33 26.32 27.83 28.26
30.63 30.25 29.32 28.94 28.15 27.28 26.49 25.52 24.88 24.93 25.00 24.48 24.53 34.13 34.98 35.24 30.52 26.98 26.27 25.90 26.83 27.39
29.93 28.98 28.33 27.23 26.33 25.34 25.02 24.25 23.96 24.24 24.39 23.55 25.88 33.13 34.08 34.50 28.58 27.45 26.99 26.42 26.53 26.21
28.91 27.63 26.89 26.00 24.70 24.56 24.14 23.45 23.48 24.04 23.45 22.30 23.32 31.88 33.18 32.21 28.05 27.40 26.53 27.58 27.48 29.12
27.74 26.86 26.03 25.31 24.36 24.23 23.60 24.10 24.31 23.39 22.91 26.39 22.92 29.52 32.60 31.94 28.48 26.60 26.68 28.24 28.89 31.09
27.16 26.36 25.74 24.33 23.86 23.50 22.74 22.99 21.46 21.73 21.57 21.86 23.71 24.65 32.11 32.82 29.38 27.80 28.82 26.78 26.76 27.03

GFSNIL_sfc_wetblb_039.txt.gz
Wetbulb
36.94 36.44 34.86 34.01 33.19 32.58 32.09 31.80 31.23 30.90 30.52 30.32 30.60 30.12 29.60 29.37 29.05 28.99 27.30 26.26 26.10 27.34
34.69 34.12 33.05 32.06 31.99 31.64 31.64 33.43 30.66 30.21 29.80 29.71 29.78 29.50 28.94 28.47 27.58 27.02 26.73 26.19 26.57 26.41
32.53 32.05 31.59 31.38 30.78 30.76 30.63 30.58 30.14 29.60 29.26 29.20 29.20 28.99 28.07 27.49 27.87 26.68 26.59 28.05 26.47 26.27
31.35 31.13 30.94 30.47 30.29 30.16 29.88 29.73 29.54 29.17 28.92 28.70 28.58 28.33 27.31 26.86 27.47 26.32 26.10 26.36 26.43 26.84
30.96 30.48 29.94 29.81 29.94 30.03 29.10 29.19 28.80 28.79 28.64 28.38 28.49 27.82 26.64 25.86 26.18 25.95 25.59 26.22 25.92 26.30
29.89 29.64 29.17 29.26 29.64 29.59 29.01 28.33 28.46 28.52 28.00 27.82 28.08 27.25 26.64 26.42 26.33 26.40 26.35 26.19 25.77 26.30
29.38 29.21 29.16 29.29 29.32 29.12 28.42 27.99 27.73 27.58 27.44 27.35 26.90 27.01 27.23 27.60 27.27 26.65 27.04 26.97 26.63 26.54
29.69 29.74 29.50 29.64 28.56 28.43 28.25 27.51 27.28 26.82 26.35 25.89 26.99 29.76 29.61 29.28 27.79 26.28 25.47 25.93 26.19 27.55
29.97 29.81 29.42 28.38 27.73 27.20 26.59 26.14 25.69 25.08 24.78 24.41 28.36 32.91 35.24 33.93 28.44 26.36 25.50 25.14 26.42 26.61
30.00 30.14 28.74 27.77 26.85 26.00 24.84 24.12 24.05 24.32 23.99 23.16 23.29 32.68 34.60 34.78 28.86 25.95 25.54 25.24 26.24 26.61
31.09 29.18 27.56 26.24 24.70 24.17 24.12 23.81 23.98 23.40 23.11 22.32 24.51 32.53 33.66 34.09 27.28 25.77 25.37 25.71 25.72 25.35
29.63 27.47 25.91 24.58 23.86 24.09 23.78 23.43 22.78 22.95 22.33 21.22 22.02 31.17 32.79 31.92 27.20 26.65 25.33 26.03 27.60 28.47
27.19 25.66 24.67 24.28 23.96 24.09 23.32 23.69 23.84 22.88 21.99 24.81 21.85 29.12 32.40 31.63 28.08 26.34 26.73 28.41 27.55 30.78
25.59 25.28 24.87 24.05 23.71 22.31 21.70 22.13 20.36 21.07 20.41 20.93 23.01 24.47 31.92 32.58 28.82 27.34 27.80 26.09 26.61 26.93

GFSNIL_sfc_wetblb_042.txt.gz
Wetbulb
37.91 36.45 34.56 33.38 32.53 31.56 31.32 30.49 30.21 30.10 29.96 29.73 29.80 29.16 28.79 28.52 28.12 27.73 26.31 25.36 25.25 26.34
34.76 33.95 32.42 31.22 31.44 31.26 30.67 32.03 29.81 29.80 29.40 29.08 28.91 28.57 28.12 27.62 26.69 25.96 25.74 25.42 25.13 25.41
32.11 31.82 31.19 31.18 29.98 29.73 29.81 29.89 29.59 29.19 28.86 28.52 28.31 27.95 27.07 26.41 26.69 25.89 25.88 27.27 25.57 25.31
30.91 30.51 30.30 29.98 29.24 29.14 29.17 29.27 29.10 28.79 28.25 27.81 27.45 27.06 26.02 25.55 26.63 25.73 25.55 25.61 25.52 25.94
30.46 29.86 29.39 28.83 28.79 29.21 28.41 28.65 28.61 28.18 27.67 27.18 27.18 26.27 25.24 25.10 25.56 25.18 25.09 25.61 25.35 25.30
29.20 28.96 28.14 28.24 28.64 28.77 28.35 27.94 28.06 27.56 26.75 26.47 26.73 26.01 25.65 25.61 25.54 25.71 25.66 25.43 24.91 25.04
28.47 28.21 28.07 28.19 28.27 28.37 27.96 27.89 26.86 26.36 26.20 26.13 25.71 26.10 26.38 27.11 26.77 26.10 25.98 25.82 25.79 25.45
28.61 28.61 28.37 28.02 27.82 27.88 27.68 26.85 26.64 25.68 25.23 24.82 26.04 28.93 28.74 28.87 27.53 25.89 25.01 25.36 25.73 26.33
29.01 28.48 27.84 27.41 27.19 27.51 26.83 25.85 24.82 24.22 23.88 23.39 27.56 32.35 34.78 33.69 27.75 26.69 25.61 24.88 25.89 25.50
28.73 28.25 27.95 29.19 27.82 26.58 24.89 23.62 23.18 23.01 22.83 22.26 22.41 32.41 34.38 34.70 28.49 26.31 24.78 24.76 25.24 26.21
28.66 27.78 28.81 27.56 26.05 24.48 23.15 22.45 21.96 22.17 22.16 21.42 23.75 32.32 33.38 33.90 27.00 25.43 24.83 24.65 24.61 24.42
28.65 28.62 27.51 25.47 23.68 22.70 22.39 21.92 21.51 22.24 21.38 20.49 21.66 31.14 32.39 31.83 25.98 25.58 25.24 25.97 25.66 26.51
29.12 27.63 24.73 23.22 22.78 22.50 22.14 23.40 23.84 22.86 21.64 24.81 21.35 28.91 31.84 31.52 27.52 25.53 26.37 26.93 26.39 30.60
27.15 24.25 23.51 22.83 22.51 21.77 21.18 21.74 20.10 21.14 20.79 21.02 22.73 23.94 31.46 32.37 28.34 26.71 27.28 25.78 26.76 27.04

GFSNIL_sfc_wetblb_045.txt.gz
Wetbulb
41.41 39.68 37.77 36.67 36.86 36.44 35.84 35.29 35.75 35.54 35.61 35.27 35.18 34.87 35.02 34.99 34.71 34.06 33.94 32.37 32.69 33.14
38.78 37.49 36.35 36.38 36.37 35.77 35.36 35.02 35.02 35.29 34.81 34.69 34.38 34.12 34.03 33.98 33.33 33.32 33.24 32.99 32.72 32.09
35.96 36.56 35.98 35.85 34.96 34.99 34.89 34.79 34.60 34.38 34.33 33.94 33.65 33.29 32.95 32.73 32.74 32.59 33.15 33.37 32.26 32.25
35.22 34.87 34.80 34.48 34.36 34.27 34.41 34.36 33.99 33.77 33.37 33.06 32.58 32.29 32.08 31.77 32.08 31.47 31.83 32.42 31.75 31.27
34.06 33.82 33.54 33.38 33.53 34.15 33.43 33.72 33.33 32.90 32.36 32.03 31.70 31.45 31.03 30.89 31.41 31.12 30.99 31.23 30.88 30.64
33.02 32.93 32.72 32.78 33.05 33.20 32.91 32.55 32.29 32.07 31.41 30.94 30.68 30.63 30.90 31.27 31.69 31.68 31.44 30.92 30.31 30.19
32.33 32.27 32.49 32.50 32.51 32.44 32.30 31.79 31.35 31.00 30.32 30.01 29.98 30.21 31.09 32.19 32.54 32.07 31.83 31.01 30.98 30.42
31.68 31.98 31.98 31.73 31.55 31.51 31.60 30.94 30.64 30.07 29.55 29.31 30.11 31.03 33.14 33.72 33.03 31.85 31.24 31.08 30.77 31.00
31.45 31.43 31.01 30.87 30.70 30.75 30.23 29.91 29.74 28.88 28.27 28.44 29.49 32.12 34.71 34.78 33.15 31.88 30.65 29.82 30.44 30.62
31.12 30.61 30.59 30.59 30.32 29.72 29.09 29.08 28.32 28.07 27.92 27.46 27.70 32.21 34.28 34.41 32.87 31.04 30.56 30.03 29.84 29.46
30.85 29.99 30.26 30.17 29.29 28.74 28.53 28.03 27.86 27.46 27.08 26.74 27.63 32.02 33.18 33.56 31.95 30.84 30.58 30.27 29.77 29.13
30.36 29.81 29.77 28.39 28.09 27.85 27.81 27.40 26.89 27.06 26.39 26.28 27.56 30.83 32.19 32.35 30.86 30.03 29.86 30.03 30.14 29.95
30.65 29.89 28.04 27.82 27.36 26.82 26.90 27.19 27.19 26.60 26.96 26.98 26.61 29.33 31.74 31.97 30.44 29.12 29.31 30.33 30.12 31.19
29.31 27.93 27.46 26.95 26.63 25.87 25.86 25.81 25.26 26.02 26.46 26.55 27.38 28.36 31.13 31.93 30.50 29.47 29.46 28.59 28.85 29.60

GFSNIL_sfc_wetblb_048.txt.gz
Wetbulb
45.81 43.84 41.13 39.63 38.61 38.85 40.64 41.11 41.25 40.74 40.46 39.98 39.90 39.89 39.82 39.82 39.87 39.18 39.00 36.65 37.18 36.88
44.12 40.86 38.21 37.87 38.32 38.29 39.07 39.91 40.00 40.04 39.51 39.56 39.21 38.77 38.65 39.20 38.23 38.27 38.01 37.40 37.24 36.66
41.55 39.38 39.20 38.52 38.10 40.38 39.86 39.42 39.37 39.35 39.07 38.79 38.15 37.66 37.87 37.73 37.31 36.96 37.74 37.00 36.45 36.24
40.62 38.61 38.91 38.63 40.60 40.04 39.69 39.54 39.08 38.82 38.37 37.62 36.96 36.92 37.12 36.56 36.37 35.63 36.08 36.51 35.72 35.05
37.71 38.84 39.30 39.91 39.60 39.70 38.87 39.07 38.46 37.94 37.14 36.40 35.98 36.20 35.70 35.39 35.82 35.36 35.16 35.41 34.90 34.31
37.53 39.56 39.25 38.85 38.80 38.70 38.25 37.82 37.39 36.99 35.96 35.28 35.04 34.99 35.12 35.26 35.74 35.87 35.64 35.22 34.33 33.87
38.93 38.83 38.50 38.20 38.02 37.84 37.79 36.94 36.29 35.85 34.93 34.55 34.40 34.19 34.64 35.61 36.09 36.07 35.68 35.23 34.54 33.79
38.09 37.90 37.41 37.23 37.09 36.95 36.69 36.03 35.52 34.67 34.22 34.33 34.29 34.11 35.10 36.19 36.16 35.55 34.90 34.84 34.27 33.91
36.50 36.65 36.55 36.28 36.15 35.84 35.25 34.87 34.66 33.77 33.35 33.69 33.26 32.30 34.48 35.24 35.14 34.90 34.00 32.99 33.36 33.67
35.95 35.32 35.45 35.45 35.24 34.75 34.35 34.61 33.63 33.00 33.30 32.76 32.80 32.19 34.05 34.50 34.51 34.00 33.38 32.88 32.65 32.35
35.21 34.53 34.81 34.95 33.95 32.76 33.50 33.59 33.60 33.26 32.55 32.22 32.24 31.65 33.06 33.68 34.01 33.61 33.28 33.08 32.67 32.11
34.69 34.16 34.37 33.23 31.53 32.33 33.53 33.24 33.23 32.48 31.75 31.52 32.30 30.99 32.18 32.83 32.97 32.51 32.59 32.88 33.09 32.69
35.05 34.62 32.52 31.18 32.76 32.64 33.15 32.41 32.43 31.85 32.16 30.45 31.25 31.08 31.65 32.41 32.27 31.48 31.58 32.52 32.78 33.07
33.67 31.55 31.21 32.96 33.05 32.46 32.19 31.91 31.87 31.27 32.09 31.35 31.21 31.13 31.39 31.90 31.64 31.11 30.65 30.63 30.65 31.78

GFSNIL_sfc_wetblb_051.txt.gz
Wetbulb
53.16 50.53 45.78 43.23 41.25 39.84 40.39 39.61 42.46 41.69 42.16 41.59 41.34 41.17 41.19 40.79 40.77 40.19 39.60 38.26 37.97 37.57
50.53 46.44 43.46 40.59 40.28 40.41 40.61 40.88 42.04 41.86 40.91 40.70 40.41 40.16 40.06 39.47 38.40 38.26 38.29 38.17 38.40 37.48
46.37 42.41 40.63 39.20 38.09 39.09 39.13 39.84 40.62 40.40 40.11 39.60 39.14 38.81 38.69 38.14 37.83 37.14 37.95 37.80 36.91 36.85
42.03 40.36 39.80 38.94 39.65 39.50 40.19 40.10 40.20 39.77 39.47 38.88 38.27 37.83 37.52 37.01 36.89 36.40 36.89 37.23 36.58 35.94
40.35 39.68 39.22 39.82 39.51 40.98 39.68 40.47 39.82 39.36 38.54 37.78 37.23 36.91 36.21 35.99 36.66 36.09 35.74 36.05 35.75 35.06
39.79 39.46 39.77 38.43 39.47 39.58 39.69 39.05 38.74 38.19 37.32 36.74 36.17 35.73 35.77 35.99 36.11 36.35 36.36 36.04 35.23 34.53
39.50 38.92 38.45 38.67 39.19 39.29 38.77 37.89 37.56 37.17 36.49 35.75 35.34 35.13 35.33 36.17 36.31 36.61 36.48 36.34 35.66 34.76
38.38 38.35 38.04 38.81 38.57 38.30 37.93 37.19 36.88 35.90 35.41 35.23 35.20 34.88 34.48 35.69 35.77 35.44 35.28 35.47 35.13 34.79
37.44 37.47 38.06 37.86 37.40 37.03 36.36 35.88 35.61 35.13 34.67 34.51 34.17 32.90 34.41 34.88 34.21 34.25 34.11 33.53 33.76 34.01
37.70 37.09 37.02 37.04 36.52 35.84 35.47 35.53 34.79 34.35 34.17 33.75 33.92 32.54 33.86 34.51 33.51 33.11 33.56 33.09 32.80 32.62
36.92 36.12 36.30 36.13 35.17 34.71 34.85 34.78 34.48 33.77 33.52 33.34 33.60 31.57 32.80 33.71 32.86 33.19 33.31 33.26 33.02 32.29
36.19 35.63 35.34 34.01 33.33 33.75 34.06 34.05 33.65 33.23 32.94 32.63 32.76 31.84 32.20 32.69 31.86 31.95 32.00 33.19 33.13 32.93
35.93 35.02 33.51 33.12 32.99 34.20 34.37 33.08 32.91 32.56 33.15 32.34 31.36 32.73 32.05 32.25 31.10 30.23 30.93 31.88 32.16 33.99
34.61 33.28 33.14 33.48 34.08 33.85 33.11 32.96 32.82 32.23 33.12 32.72 32.44 31.67 32.18 32.17 30.62 30.31 30.06 29.94 30.07 31.33

GFSNIL_sfc_wetblb_054.txt.gz
Wetbulb
47.10 45.49 43.27 42.58 41.63 41.01 40.78 41.04 41.98 41.80 41.37 40.65 39.88 37.82 37.56 36.69 35.95 35.42 34.59 33.41 33.18 33.09
47.54 45.00 43.00 42.38 41.87 41.35 40.68 41.12 40.64 40.09 39.27 38.45 38.57 36.53 36.52 35.42 34.37 34.14 33.49 32.48 32.21 32.23
44.41 42.03 40.81 40.51 39.76 39.89 40.33 40.47 40.10 39.03 38.28 37.44 35.40 35.26 35.06 34.03 33.93 32.83 32.58 33.20 31.77 31.53
39.55 39.38 40.58 39.79 39.56 39.50 39.65 39.07 38.05 38.49 37.38 35.79 35.32 35.13 33.79 33.31 33.55 32.56 32.09 32.15 31.82 31.77
38.40 39.13 38.86 38.45 38.67 39.71 38.84 39.02 38.28 37.91 36.29 35.05 34.26 33.63 32.71 32.41 32.95 31.98 31.42 31.61 31.24 31.02
39.16 38.76 38.58 38.38 38.81 39.16 38.48 37.65 37.18 35.53 34.81 33.75 33.86 32.87 32.23 32.55 32.08 32.09 31.86 31.63 30.85 30.48
38.91 38.52 38.56 38.24 38.22 37.73 37.16 36.22 34.61 34.85 34.09 33.41 33.06 33.11 32.80 33.30 32.08 31.63 31.95 32.32 31.55 30.66
38.00 37.88 37.72 37.21 37.02 36.81 36.16 34.35 34.49 33.17 32.42 32.46 33.17 33.76 32.42 32.31 31.30 30.11 29.74 30.37 31.28 31.00
37.30 36.79 36.37 36.16 35.37 34.97 33.06 32.60 32.35 31.81 32.08 31.57 33.73 34.50 34.90 33.75 30.29 29.99 29.08 28.53 29.35 29.85
36.52 35.83 35.28 35.11 34.25 32.51 31.56 31.61 30.78 31.08 31.71 31.33 30.76 33.96 33.90 34.36 30.45 28.96 28.28 27.90 28.11 28.99
35.67 34.67 34.56 33.34 32.41 31.34 31.33 30.97 30.93 31.36 30.99 30.21 31.45 33.05 32.94 33.80 28.86 27.75 27.73 28.13 28.13 27.39
34.81 33.66 32.92 31.51 30.20 30.38 31.15 31.39 30.51 30.62 29.79 28.21 27.75 32.38 32.47 31.63 27.58 27.12 26.13 28.69 28.46 29.48
34.17 32.71 30.99 29.86 31.01 32.11 31.19 30.56 30.50 29.58 28.57 31.37 26.64 32.62 32.87 31.67 28.07 25.59 26.06 27.00 28.36 32.90
31.94 31.42 31.86 31.85 31.68 30.98 29.87 29.36 27.89 27.31 27.38 27.50 27.91 27.05 33.11 33.11 28.18 26.73 27.08 26.12 26.67 27.45

GFSNIL_sfc_wetblb_057.txt.gz
Wetbulb
49.51 48.07 46.00 44.98 44.72 44.31 44.31 43.39 41.43 42.01 42.11 41.90 41.93 41.59 39.65 37.73 36.08 34.62 33.72 32.53 32.46 32.48
46.61 45.76 44.80 43.95 43.50 43.37 42.09 41.56 41.57 40.51 40.65 40.50 39.92 39.51 37.87 34.91 34.65 32.83 32.56 32.10 31.65 31.59
45.20 44.48 43.16 42.61 41.35 41.42 41.52 41.18 40.00 39.99 39.65 38.99 37.86 37.16 36.33 34.98 33.80 33.69 32.66 32.77 30.89 30.48
42.11 41.59 41.16 40.17 40.90 40.89 40.48 40.09 39.36 38.93 38.01 37.34 35.99 35.80 34.23 33.92 33.95 32.23 31.78 31.41 31.55 31.40
39.20 39.72 39.67 39.37 40.40 39.85 39.28 39.28 38.42 37.91 36.94 36.37 34.99 34.57 33.63 32.92 32.26 32.21 31.32 31.42 30.90 30.37
38.80 38.86 37.56 38.56 38.99 39.10 38.59 38.42 38.04 36.64 35.52 34.84 34.39 33.34 33.09 32.92 32.36 31.82 31.82 31.88 30.80 29.93
38.27 37.18 38.27 38.52 38.55 38.89 38.58 38.11 35.94 35.76 34.80 34.31 33.49 33.55 32.72 32.94 31.96 31.67 31.87 31.01 30.58 29.81
38.25 38.64 38.34 37.80 37.76 37.54 36.82 35.28 34.78 33.60 33.39 33.23 33.10 33.19 31.84 32.92 32.04 31.10 29.45 29.25 29.80 29.91
37.90 37.54 37.24 36.58 35.99 34.95 34.13 33.65 33.30 32.61 32.21 30.21 33.64 36.55 36.20 34.11 31.12 29.55 28.40 27.69 28.35 28.32
36.56 35.49 35.34 35.39 34.06 33.04 32.46 32.41 31.46 31.15 29.97 30.33 31.58 35.50 35.05 34.73 29.94 28.23 27.23 26.60 26.57 27.36
35.16 34.20 33.98 33.41 32.52 32.03 31.77 30.25 29.05 29.47 30.32 30.59 32.69 34.54 33.95 33.93 27.99 27.02 26.57 26.60 26.38 25.70
33.96 33.21 32.77 32.16 31.79 31.03 30.22 29.76 30.31 30.78 29.96 28.11 29.28 33.30 32.96 31.03 27.23 26.91 25.73 27.23 27.11 28.27
33.26 32.70 31.50 31.45 30.91 30.57 31.09 30.85 30.81 29.58 28.03 31.01 26.63 32.81 33.02 31.50 27.46 25.54 25.91 26.09 26.65 31.82
32.50 31.80 31.60 31.53 31.71 31.08 30.13 29.28 27.38 26.85 26.29 26.16 27.06 26.65 33.35 33.65 27.62 26.19 25.09 25.18 25.81 26.25

GFSNIL_sfc_wetblb_060.txt.gz
Wetbulb
53.83 53.50 51.49 49.39 47.18 46.21 45.01 44.63 45.10 45.22 44.80 43.62 41.83 41.15 39.92 38.84 38.76 38.28 33.96 33.56 31.47 31.38
51.54 48.98 47.06 45.73 46.53 45.60 45.06 44.78 44.27 44.63 43.14 41.52 40.92 40.19 39.09 37.99 36.85 35.79 34.64 31.94 33.11 30.95
47.05 46.85 45.91 45.98 44.99 44.70 45.11 44.28 43.53 42.51 40.85 40.04 39.30 38.56 37.65 35.80 35.29 34.66 33.94 32.30 30.49 30.49
43.45 44.06 43.98 44.22 44.27 44.51 43.36 42.03 40.97 40.02 39.60 38.33 37.61 38.15 35.90 33.87 34.20 33.10 31.15 30.92 30.77 30.54
42.56 42.98 42.37 42.25 42.08 41.79 40.69 41.29 39.79 38.60 37.64 36.91 36.47 36.09 34.68 34.24 33.52 32.85 31.14 30.94 29.98 30.10
39.75 39.30 38.97 39.00 39.34 40.11 39.79 38.73 38.10 37.47 36.41 35.67 34.86 34.04 33.81 33.71 32.97 32.77 32.33 30.95 29.76 29.52
38.45 38.59 39.38 39.12 39.04 38.88 38.51 37.31 36.78 35.78 34.94 34.35 34.05 34.24 34.11 33.82 32.72 31.82 30.54 30.21 29.64 29.33
39.09 38.30 38.49 38.14 38.07 37.58 36.34 35.31 34.70 33.86 33.43 33.59 33.94 34.23 33.36 32.44 31.62 29.72 28.50 29.02 29.31 28.95
37.99 37.52 37.12 36.62 35.28 34.52 34.17 33.80 33.41 32.83 32.66 32.67 35.30 37.81 37.11 33.09 29.69 29.76 28.53 27.32 26.38 27.23
36.03 34.84 34.63 34.79 34.06 33.69 32.65 32.55 32.03 31.87 31.91 32.03 33.93 36.60 36.23 34.94 29.18 27.30 25.97 25.05 25.70 26.88
35.05 34.65 34.37 33.98 32.58 32.01 32.34 31.64 31.31 30.87 30.95 31.24 33.61 35.82 35.03 33.65 26.93 25.73 25.66 26.13 25.89 25.52
34.66 33.00 33.11 32.06 31.71 31.96 31.39 30.61 30.35 30.71 30.02 30.80 30.67 34.45 33.81 30.41 26.00 26.85 26.06 26.95 26.80 27.64
32.74 32.31 32.03 32.27 31.86 31.84 31.46 30.80 30.96 29.58 29.14 31.13 26.93 33.54 33.17 31.05 26.92 26.08 26.28 26.40 26.55 30.72
32.16 31.81 31.64 31.29 31.37 30.92 30.17 29.34 28.35 26.87 25.77 24.40 26.36 26.08 33.33 33.86 27.28 26.68 26.13 25.77 26.13 26.68

GFSNIL_sfc_wetblb_063.txt.gz
Wetbulb
56.49 55.53 53.85 52.42 52.36 51.91 49.92 48.00 46.25 46.44 47.61 46.65 44.83 42.90 42.22 40.21 38.83 37.61 35.39 35.35 34.72 33.47
52.47 51.36 50.08 49.06 49.35 48.70 47.28 46.55 46.07 46.07 44.57 44.27 43.20 40.70 39.77 38.53 38.04 36.15 35.90 34.38 34.14 33.33
48.53 47.18 45.95 46.48 45.99 45.00 45.83 45.67 44.89 44.46 43.18 42.15 41.25 39.71 38.47 36.74 36.31 35.28 34.97 34.43 32.87 32.61
43.85 43.70 44.64 44.81 45.04 44.67 44.46 44.19 43.21 43.44 41.80 39.79 38.46 37.86 36.53 35.86 35.31 34.29 33.84 33.15 32.75 31.90
42.59 43.32 42.79 42.39 43.31 44.15 42.35 42.77 42.42 40.94 39.35 38.29 37.63 36.92 35.43 34.72 34.38 33.34 32.25 32.31 31.95 31.15
40.56 42.02 43.40 43.60 44.85 43.61 42.32 40.26 39.47 38.69 37.29 36.18 35.29 34.51 34.27 33.85 33.30 33.02 32.76 32.39 31.97 31.10
38.44 41.11 40.67 40.41 40.91 40.35 39.04 37.91 37.34 36.22 34.98 34.56 34.69 34.54 34.36 33.93 33.07 32.45 31.85 31.68 30.40 29.89
40.11 38.88 39.09 38.01 37.88 36.79 36.36 35.15 34.62 33.99 33.98 34.36 34.55 34.68 33.56 33.26 32.03 30.77 29.66 30.04 28.85 29.61
37.40 37.18 35.99 34.99 33.65 34.42 34.09 33.81 33.74 33.65 34.71 35.65 37.05 38.20 36.51 32.93 30.79 29.93 28.14 27.39 27.39 26.90
35.39 34.54 34.60 34.73 34.32 33.43 33.05 33.19 32.71 32.92 33.83 34.86 36.13 37.53 36.82 34.02 29.83 27.54 26.96 26.13 25.85 26.85
35.04 34.43 34.23 33.60 32.80 32.70 33.27 33.17 33.16 32.80 32.61 32.46 34.19 36.48 36.11 33.45 28.25 26.71 25.64 25.55 25.45 24.93
35.11 33.68 33.31 32.36 32.07 32.42 32.36 31.83 31.01 31.44 30.76 31.55 31.98 35.49 35.06 30.55 26.78 27.25 25.78 26.48 26.14 27.43
34.00 33.24 32.61 32.36 32.00 31.89 31.77 31.13 30.74 29.39 29.57 32.47 28.06 33.76 33.35 31.70 26.79 25.32 25.84 26.32 26.61 30.43
32.78 32.36 32.42 32.07 31.96 31.25 30.20 29.40 27.22 25.55 24.89 24.52 26.23 26.29 33.38 33.82 27.28 26.94 26.44 26.26 26.26 26.70

GFSNIL_sfc_wetblb_066.txt.gz
Wetbulb
56.87 56.52 56.46 55.11 56.05 54.01 53.33 53.18 50.31 50.24 49.29 47.81 47.32 46.19 45.34 44.50 41.40 40.26 37.80 36.43 36.26 35.10
52.09 53.29 53.94 51.05 50.85 50.38 49.19 48.16 49.37 49.47 47.90 47.03 46.04 43.87 42.60 41.78 39.45 38.19 36.96 35.75 35.17 34.65
49.60 50.50 48.80 47.01 46.90 46.31 46.15 46.78 46.34 46.18 46.16 45.15 44.12 41.04 39.57 38.03 36.94 36.01 35.49 35.12 34.20 33.57
45.93 45.57 44.83 44.11 43.39 44.17 44.57 44.94 44.53 44.11 43.55 43.36 41.45 38.84 37.17 36.35 35.77 34.87 34.25 33.85 33.58 32.64
44.75 44.92 44.57 44.98 45.37 44.80 44.21 44.00 43.25 42.55 40.89 38.90 37.42 36.93 35.88 35.10 34.70 33.78 32.98 32.91 32.71 31.92
43.96 44.08 43.82 43.94 44.07 44.21 43.46 42.22 41.22 39.63 37.83 36.93 36.13 35.57 35.27 34.65 33.77 33.55 33.61 33.76 33.44 32.50
42.28 42.56 42.52 42.78 42.66 41.34 40.38 39.01 38.00 36.96 35.89 35.07 34.77 34.79 34.73 34.59 33.99 33.60 32.71 32.35 31.74 30.93
39.63 39.98 39.40 37.99 37.60 37.32 36.62 35.55 35.52 34.87 34.76 34.94 35.04 35.11 33.84 33.56 32.46 31.53 30.71 30.67 30.44 30.59
36.00 35.12 34.71 34.61 34.05 33.93 34.03 34.33 34.99 35.26 35.80 36.41 37.70 38.91 37.05 33.36 31.45 30.57 29.64 28.70 28.13 28.69
35.07 34.43 34.26 34.34 33.85 33.42 33.37 34.26 34.72 35.47 36.01 35.80 37.02 38.50 36.87 34.64 31.25 29.76 28.41 27.67 27.44 27.77
34.76 34.46 34.60 34.25 33.68 33.56 34.17 33.86 33.75 33.77 33.85 33.24 36.58 37.71 34.78 32.85 29.11 27.88 27.06 26.39 26.15 25.66
34.77 33.84 33.64 32.97 33.01 33.62 33.27 32.29 31.91 32.40 32.08 32.59 34.00 36.59 34.78 30.83 27.74 27.81 26.87 27.30 26.71 26.99
34.28 33.44 32.85 32.89 32.15 32.30 32.27 31.84 32.10 31.71 32.08 33.34 31.11 34.15 33.92 31.21 27.62 25.68 26.44 27.07 26.70 30.44
33.63 33.25 33.19 32.71 32.33 31.90 31.52 30.87 28.76 27.53 26.72 26.76 28.00 29.88 34.87 33.49 27.84 27.54 26.75 26.31 26.30 26.68

GFSNIL_sfc_wetblb_069.txt.gz
Wetbulb
54.98 60.31 60.37 60.66 59.74 58.42 57.33 57.25 57.96 56.31 55.00 54.50 53.48 52.76 51.55 50.71 49.95 48.08 45.73 42.56 40.35 37.67
50.45 53.52 58.79 58.81 58.78 59.05 57.04 54.88 54.17 54.11 53.13 52.19 51.87 50.88 49.45 47.91 45.33 42.83 40.07 38.49 37.15 36.72
50.14 51.64 54.39 55.30 55.13 53.94 51.82 51.90 52.00 51.67 50.78 49.70 48.67 47.98 47.21 43.89 40.72 37.68 36.92 36.09 35.27 34.79
48.94 49.89 50.60 50.53 49.34 49.05 48.54 48.73 48.52 48.54 47.91 46.28 44.24 43.21 40.20 38.27 37.56 35.79 34.94 34.99 34.84 33.53
46.91 47.69 48.14 47.66 47.42 47.59 46.76 46.87 45.88 45.24 43.71 41.39 39.18 38.53 37.07 36.29 35.67 34.75 33.85 33.63 33.66 33.52
45.34 45.73 45.76 45.98 45.71 45.62 44.84 43.79 43.31 41.11 38.35 37.29 36.67 36.20 36.11 35.63 35.03 34.87 34.26 34.38 33.66 33.13
43.44 44.31 44.28 44.06 43.12 41.52 40.50 38.89 37.80 37.24 36.40 36.07 35.87 35.99 35.53 35.07 34.49 34.12 33.87 33.48 33.21 32.51
39.56 39.11 38.82 39.04 38.03 37.33 36.66 36.19 36.09 35.49 35.50 35.85 36.12 35.57 34.52 34.14 33.29 32.56 31.96 32.04 32.25 32.19
35.53 35.21 34.71 34.88 35.22 35.23 35.31 35.87 36.92 37.75 36.81 36.58 37.63 39.24 37.94 34.80 33.00 32.56 31.74 30.47 29.98 30.44
35.00 34.57 34.73 35.17 35.16 35.35 35.79 36.87 37.05 38.28 38.06 37.15 37.83 39.34 38.29 36.15 32.33 31.04 30.19 29.70 30.03 30.07
35.02 34.67 34.90 34.85 34.37 34.35 35.12 35.04 35.06 35.06 36.04 35.90 37.33 37.70 35.94 33.79 30.53 29.68 29.76 29.58 29.44 29.02
34.85 34.30 34.29 33.78 33.18 33.70 33.36 32.88 32.53 32.55 32.59 33.14 34.23 35.44 34.76 31.31 30.14 29.44 28.97 29.29 29.27 30.56
34.46 33.83 33.17 33.33 32.58 32.73 33.04 32.45 33.79 32.82 34.09 35.39 33.79 35.14 34.81 30.90 30.38 29.06 29.37 30.04 29.76 30.86
33.96 33.44 33.46 32.97 32.85 32.61 31.95 31.50 31.03 30.35 30.75 30.68 30.42 34.58 34.67 33.06 30.82 30.11 29.19 28.82 28.78 29.47

GFSNIL_sfc_wetblb_072.txt.gz
Wetbulb
55.07 58.72 61.63 62.02 61.71 62.03 61.90 61.44 61.90 61.26 61.01 60.88 60.72 59.96 59.56 58.71 57.45 56.39 55.70 52.84 47.06 41.57
54.03 54.60 57.02 60.41 60.92 61.08 61.62 61.64 62.01 60.55 58.52 57.87 56.66 56.23 55.91 54.61 54.32 52.35 50.83 46.37 40.89 38.30
52.68 53.87 54.73 56.17 58.18 58.11 58.22 56.78 56.03 56.17 55.06 53.67 53.27 52.92 51.57 51.07 48.49 44.92 41.32 38.93 37.49 36.12
51.54 52.81 53.75 54.34 54.84 54.65 53.73 53.13 53.21 53.27 52.26 50.87 49.98 49.20 45.18 42.40 40.43 37.67 36.97 36.85 35.75 34.65
49.86 50.15 50.69 50.91 51.64 51.63 51.19 51.11 50.67 50.10 48.87 46.73 44.47 42.09 39.40 37.70 36.87 35.76 34.82 35.09 34.29 33.55
47.42 48.16 48.20 48.24 48.48 48.88 49.21 48.68 47.26 45.21 42.21 40.21 38.74 37.58 37.28 36.56 36.03 36.17 36.18 36.15 35.35 34.66
44.05 45.04 44.69 44.49 43.58 43.13 41.92 40.59 39.22 38.77 38.06 37.61 37.12 36.62 36.63 37.22 37.23 36.66 35.50 35.52 35.02 34.19
38.84 39.48 38.88 38.69 38.39 37.96 37.57 37.08 37.35 36.89 36.83 37.09 36.91 36.99 36.63 36.14 35.43 34.13 34.03 33.39 33.79 33.50
36.05 36.11 36.09 36.48 36.60 37.30 37.17 37.30 37.64 37.52 37.36 37.38 37.74 39.21 38.38 35.77 34.24 33.94 33.25 31.61 31.57 32.22
35.52 35.47 36.30 37.46 37.92 37.80 37.47 37.94 37.72 37.82 37.23 36.94 38.09 39.66 38.98 37.13 33.10 32.33 31.60 30.89 31.10 32.28
35.45 35.15 36.33 36.59 36.43 36.48 36.24 35.85 35.98 35.84 36.25 36.02 37.37 38.01 35.66 33.65 31.49 31.49 31.79 32.28 32.28 31.13
35.67 35.14 35.24 34.54 34.00 34.88 34.66 33.39 32.83 33.13 33.04 33.10 34.28 34.90 33.42 32.98 32.50 31.87 31.39 31.39 31.37 32.06
35.48 34.59 33.77 33.97 33.03 33.25 33.91 33.63 34.58 33.87 35.53 36.32 34.62 35.36 33.54 32.29 32.06 31.42 31.95 32.13 31.93 30.95
35.53 34.54 34.36 34.55 34.56 34.55 33.81 34.26 33.69 33.03 32.66 32.88 34.93 34.97 34.22 32.94 32.73 32.17 31.49 30.96 30.60 31.39

GFSNIL_sfc_wetblb_075.txt.gz
Wetbulb
54.90 55.61 58.07 62.28 63.20 63.38 62.95 61.84 62.28 61.33 61.93 61.96 62.09 61.82 61.16 60.06 59.69 59.00 58.54 57.58 55.59 51.32
54.15 54.53 54.91 57.47 61.16 61.99 61.61 61.07 61.49 61.15 60.12 60.42 60.23 59.93 58.75 58.01 56.80 55.96 54.99 48.29 43.77 40.93
52.55 53.53 54.45 55.04 55.55 58.06 59.40 58.82 57.63 57.95 57.86 56.68 55.85 55.10 54.22 52.62 49.91 46.16 44.04 42.76 39.73 39.20
52.00 52.81 53.64 53.99 54.88 55.41 55.05 54.63 54.73 54.76 53.73 52.66 52.08 51.53 49.34 48.01 44.51 42.19 40.37 40.19 38.02 36.63
50.11 50.54 51.16 51.80 52.67 52.88 52.88 52.92 52.49 51.96 51.11 49.55 48.05 44.52 41.97 40.64 39.91 38.46 36.65 36.80 36.62 35.49
47.39 47.95 48.08 48.73 49.33 50.05 50.22 49.47 48.45 47.41 45.52 42.98 41.22 39.55 38.43 37.79 36.94 36.54 36.33 36.30 36.18 36.11
42.40 42.33 42.09 41.54 41.39 40.89 41.17 40.41 39.63 39.80 38.77 38.33 37.87 37.66 37.29 37.23 36.82 36.80 36.59 36.74 37.01 36.32
38.60 38.88 38.59 38.37 38.25 38.06 38.07 37.88 37.84 37.42 37.50 37.80 37.54 36.92 36.17 35.56 35.22 34.50 34.07 33.98 34.36 34.69
37.24 37.37 37.53 37.98 37.96 38.03 38.02 38.07 38.08 37.75 37.80 38.01 38.75 40.00 39.21 36.35 34.43 34.03 33.34 31.52 31.78 33.59
36.97 37.61 38.63 39.15 38.75 38.12 37.86 38.07 37.36 37.18 37.05 36.58 37.29 39.07 38.32 36.55 32.01 31.72 31.56 31.58 31.87 31.89
36.70 36.69 37.04 37.03 36.68 36.76 36.80 36.16 35.92 35.50 35.62 35.85 36.97 38.00 36.95 34.71 32.05 32.30 32.38 32.68 32.28 31.56
36.44 36.00 36.11 35.43 35.00 35.37 34.32 33.32 33.02 33.66 33.57 33.28 33.57 35.21 34.91 33.83 33.18 32.27 31.36 31.46 31.43 32.18
36.25 35.50 34.58 34.72 33.40 33.69 34.50 34.15 34.94 34.70 35.13 35.74 33.98 34.78 34.44 33.90 32.76 31.31 31.26 31.96 31.72 31.56
35.81 35.21 35.16 35.13 35.35 34.96 34.49 34.26 33.84 33.36 34.19 35.03 35.08 34.32 34.50 34.11 32.85 31.50 30.93 30.12 29.92 30.59

GFSNIL_sfc_wetblb_078.txt.gz
Wetbulb
49.63 49.55 50.08 51.10 55.70 58.15 59.42 59.60 61.11 61.24 61.03 61.11 61.53 61.45 61.11 60.51 60.18 59.00 57.43 56.86 55.69 49.35
48.86 49.04 49.23 50.23 51.23 54.95 57.71 60.00 59.92 60.14 59.67 60.02 60.05 59.87 59.41 58.57 57.83 57.36 55.78 49.93 45.81 42.94
48.12 48.63 49.14 49.61 50.03 51.60 54.30 55.40 55.91 56.72 57.20 56.79 56.01 55.31 55.08 52.77 49.72 46.81 44.37 43.53 42.52 40.96
47.28 48.29 49.02 49.28 50.17 50.27 50.87 52.07 53.12 53.79 52.79 52.45 51.77 51.03 49.46 46.58 45.30 43.17 41.66 41.15 39.87 38.25
47.82 47.63 47.36 47.85 48.70 50.03 50.39 51.28 51.27 50.53 48.78 46.85 44.12 43.01 42.75 41.67 40.89 39.34 37.89 37.13 36.87 36.94
42.81 42.86 42.28 42.35 42.00 42.62 42.53 42.33 41.70 41.38 39.93 38.46 38.32 37.97 38.03 37.82 37.13 36.82 36.89 36.93 36.62 36.28
39.04 39.22 38.77 38.65 38.59 38.62 38.92 38.49 38.26 38.34 38.03 37.88 37.75 37.71 37.49 37.19 36.75 36.64 36.58 36.74 36.59 36.36
37.87 38.11 38.10 37.79 37.79 37.92 37.90 37.83 38.06 37.73 37.61 37.42 37.32 37.00 36.36 36.03 35.41 34.56 33.85 34.12 34.76 35.39
37.69 38.02 38.08 38.09 38.00 37.97 37.97 38.05 38.27 38.21 38.31 38.00 38.49 39.84 38.93 35.80 34.12 33.34 32.38 31.89 32.19 33.36
38.21 38.37 38.40 38.46 38.09 37.45 36.97 37.31 36.59 36.45 36.81 37.01 37.80 40.06 39.17 36.79 31.56 31.55 31.60 31.79 31.90 32.69
37.39 37.01 37.26 36.93 36.26 35.93 36.03 35.42 35.01 35.33 36.15 36.53 37.88 38.76 37.65 35.19 30.78 31.68 30.76 30.14 29.98 30.22
36.75 36.04 35.89 34.72 33.96 34.26 33.78 33.26 33.04 32.84 31.57 30.90 33.33 36.08 35.54 32.73 29.75 28.75 28.10 29.25 29.67 29.95
36.07 35.08 34.07 33.97 33.34 33.68 34.35 34.01 34.28 33.77 31.36 34.19 30.10 35.69 35.48 32.54 29.61 27.55 28.02 28.08 29.01 32.81
35.37 34.76 34.94 34.89 34.86 34.40 33.90 33.31 30.46 29.54 30.82 30.71 30.93 31.37 35.36 35.27 29.70 27.32 26.20 25.65 25.85 26.85

GFSNIL_sfc_wetblb_081.txt.gz
Wetbulb
47.21 47.67 47.94 48.57 50.27 54.13 57.22 58.53 61.36 61.37 61.90 61.96 61.68 61.41 61.40 60.77 60.68 59.55 58.62 57.28 56.11 53.15
46.78 46.84 47.10 47.78 48.50 50.12 54.80 57.80 59.35 59.86 59.76 59.94 59.88 59.79 59.38 58.57 57.92 57.93 56.29 55.05 52.32 47.67
46.67 47.31 47.79 48.32 49.22 50.56 51.33 52.29 53.43 54.73 56.11 55.90 55.57 55.43 55.16 52.12 50.12 48.10 44.92 44.17 43.03 41.64
45.55 46.58 47.20 47.56 48.22 48.54 49.36 50.03 50.62 50.79 50.40 50.57 49.74 50.12 48.38 46.45 45.19 42.98 41.53 41.15 39.76 38.60
44.09 43.63 43.01 41.61 42.72 46.34 46.03 47.14 46.30 44.95 42.81 42.54 41.39 42.38 42.13 41.32 41.00 40.03 38.59 38.19 38.04 37.50
40.69 39.82 39.35 39.59 40.48 40.95 41.07 40.40 40.37 39.88 38.96 38.68 38.93 38.87 39.01 38.64 38.10 37.88 37.72 37.81 37.43 36.93
38.02 38.28 38.08 38.69 38.92 39.14 39.24 38.67 38.52 38.59 38.32 38.34 38.30 38.19 37.93 37.68 37.23 36.90 36.74 36.85 36.69 36.36
37.96 38.26 38.26 37.95 38.07 38.39 38.41 38.26 38.32 37.65 37.54 37.56 37.65 37.38 36.58 36.25 35.40 34.82 34.52 34.99 35.64 36.11
38.24 38.27 38.09 38.10 38.09 38.20 38.40 38.72 38.75 38.22 38.03 37.81 38.25 39.73 38.82 34.84 32.78 32.50 32.62 32.23 32.65 34.40
38.53 38.12 38.03 38.14 37.68 37.24 36.87 37.19 37.01 37.06 37.61 37.37 37.82 39.79 38.96 36.59 30.81 30.42 30.92 30.93 32.13 33.03
37.68 37.26 37.39 36.86 36.02 35.74 35.80 35.57 35.84 36.21 37.25 37.46 38.61 39.57 38.13 35.82 31.07 30.42 29.27 29.25 29.18 28.60
36.96 36.18 35.72 34.77 33.96 34.41 33.92 33.23 32.14 32.21 30.12 29.98 32.12 36.49 35.62 31.69 28.37 27.90 26.87 28.20 28.24 28.23
36.15 35.01 34.06 33.86 33.40 33.58 33.62 32.84 31.44 30.06 30.10 34.46 30.47 36.24 35.51 30.80 28.03 26.31 27.03 27.16 27.87 33.27
35.45 34.77 34.91 34.78 34.62 33.86 33.69 30.88 28.96 28.30 28.72 28.42 29.72 31.79 36.02 34.29 27.56 26.51 24.72 24.86 25.25 26.22

GFSNIL_sfc_wetblb_084.txt.gz
Wetbulb
46.89 47.57 47.94 48.29 49.19 52.13 55.96 57.59 59.37 59.62 60.02 60.27 62.06 61.93 61.59 60.65 60.07 59.35 59.03 58.07 57.18 54.95
46.14 46.28 46.50 47.27 47.95 49.60 53.76 56.87 57.11 58.37 58.99 59.47 60.61 60.30 59.39 58.57 57.75 57.36 54.23 52.82 51.98 48.47
45.51 46.28 46.71 47.73 48.95 49.85 50.64 51.60 53.09 54.29 54.78 54.52 55.40 55.78 55.80 52.45 50.14 48.06 45.23 44.55 43.06 42.39
44.24 44.78 44.71 45.51 46.30 47.19 47.89 48.87 49.14 48.81 48.02 48.30 48.37 49.08 47.47 45.93 44.93 43.04 41.84 41.48 40.72 40.01
40.51 39.92 39.09 39.22 40.44 43.55 44.08 43.40 42.63 41.48 40.32 40.02 41.26 41.91 42.80 42.36 42.04 41.04 39.52 39.22 38.92 38.46
38.14 38.19 38.88 38.80 39.38 40.31 39.80 38.96 38.71 38.35 38.40 38.90 40.01 40.03 39.82 39.65 39.04 38.69 38.51 38.43 37.81 37.47
36.29 36.65 38.41 39.03 39.14 39.24 39.43 39.00 38.80 38.92 38.89 38.85 38.74 38.68 38.51 38.13 37.51 37.25 37.08 37.24 37.05 36.52
37.83 38.47 38.49 38.35 38.52 38.76 38.65 38.32 38.26 37.80 37.80 37.99 38.01 37.76 36.83 36.60 36.04 35.34 34.96 35.80 36.10 36.41
38.37 38.34 38.13 38.24 38.45 38.68 38.70 38.60 38.47 38.08 37.98 37.86 38.56 40.02 38.88 34.36 33.32 33.91 33.51 33.04 33.25 35.85
38.33 37.91 37.87 38.02 37.73 37.18 37.14 37.53 37.38 37.52 37.46 37.22 37.87 40.01 38.99 36.38 29.79 31.27 31.21 31.86 31.90 31.82
37.94 37.37 37.26 36.72 35.98 35.85 36.30 36.24 36.75 37.15 37.57 38.24 39.13 39.98 38.47 35.93 28.71 28.48 28.54 28.36 27.41 26.96
37.31 36.19 35.73 34.76 34.24 34.80 34.50 33.61 33.16 33.63 33.33 32.23 33.54 37.48 35.94 30.82 27.60 27.03 26.40 27.73 27.12 26.98
36.48 35.29 34.25 34.03 33.24 33.36 31.55 31.30 30.17 29.29 29.77 34.26 30.72 36.11 34.90 29.63 27.04 25.61 26.56 26.45 27.48 33.33
35.74 34.92 34.82 34.46 34.24 33.45 29.79 29.19 27.92 27.30 27.47 27.90 29.47 32.01 35.46 33.37 27.07 26.01 24.69 24.82 25.23 26.09

GFSNIL_sfc_wetblb_087.txt.gz
Wetbulb
46.46 46.55 46.46 46.88 47.89 50.65 54.08 56.13 58.17 59.72 59.71 59.96 60.06 60.18 60.14 59.55 59.99 59.15 58.33 57.95 56.22 56.16
46.26 46.31 46.31 46.84 47.27 48.49 51.34 55.65 55.91 56.88 57.70 58.52 58.91 58.84 58.68 57.21 57.44 55.56 51.45 49.59 50.33 49.50
45.10 45.83 47.17 48.28 48.76 49.47 50.08 51.07 52.54 54.15 55.46 55.20 55.21 55.28 54.82 51.32 50.41 48.05 45.80 45.49 44.90 43.68
43.62 43.58 44.23 45.09 46.15 47.24 48.01 48.70 48.74 48.43 48.28 48.80 49.12 49.39 48.08 46.38 45.65 44.02 42.10 42.46 41.87 40.83
40.00 39.60 39.23 39.44 41.38 44.22 42.92 42.01 41.97 41.16 41.12 41.98 42.42 43.28 44.43 43.32 41.65 40.49 40.62 40.05 39.84 39.29
37.41 37.46 37.17 37.51 38.32 39.01 38.44 37.98 38.10 38.50 38.59 39.05 39.45 39.05 39.24 39.23 38.97 39.82 39.63 39.44 38.87 38.30
36.09 36.20 36.50 38.52 39.48 39.66 39.87 39.34 39.31 39.41 39.19 39.03 39.15 39.07 38.98 38.69 38.09 37.81 37.57 37.68 37.51 37.06
37.24 37.42 37.69 38.66 38.87 39.00 38.74 38.39 38.50 38.30 38.33 38.52 38.63 38.38 37.45 37.15 36.56 36.00 35.44 35.40 35.06 35.00
37.21 38.02 38.26 38.60 38.74 38.71 38.49 38.39 38.48 38.20 38.34 38.40 39.31 40.57 39.54 36.47 34.87 34.84 34.48 33.37 33.86 35.01
37.47 37.81 37.95 38.15 37.82 37.53 37.29 37.77 37.39 37.56 37.84 36.87 37.72 40.20 38.97 36.39 32.82 32.54 32.44 32.58 32.00 30.49
38.12 37.44 37.44 37.02 36.49 36.57 37.03 37.16 37.01 37.43 38.04 37.99 38.50 39.51 38.36 35.68 29.57 28.97 27.97 27.36 26.50 26.21
37.47 36.45 36.12 35.22 34.84 35.43 35.29 34.44 33.84 34.63 34.73 35.23 36.70 38.29 36.39 30.90 27.57 27.31 26.41 27.25 26.42 26.93
36.85 35.90 34.89 34.57 33.56 33.43 34.02 32.87 32.71 31.67 30.46 34.89 31.33 35.91 34.78 29.46 27.17 25.43 26.30 26.78 27.66 33.35
36.27 35.35 35.03 34.50 34.13 33.03 31.88 31.03 28.71 27.42 27.85 28.43 30.30 31.95 34.99 33.18 27.21 26.27 24.89 25.17 25.33 26.26

GFSNIL_sfc_wetblb_090.txt.gz
Wetbulb
47.43 48.00 48.00 47.79 48.13 50.52 53.26 55.26 56.98 58.43 59.56 59.97 60.08 59.76 58.88 57.87 57.21 56.49 56.39 57.68 57.32 56.76
45.87 45.99 46.01 46.37 46.93 47.74 49.27 53.83 54.61 55.06 56.06 57.46 58.23 58.78 58.65 58.31 58.18 56.27 54.18 52.25 51.74 50.96
44.57 45.21 45.84 46.77 47.25 48.20 49.01 50.11 51.48 55.28 55.74 55.70 56.24 57.43 56.01 52.95 51.62 48.91 46.60 47.43 46.69 45.06
42.45 42.52 43.10 44.31 45.47 46.24 46.75 47.34 47.09 49.08 49.35 49.84 50.27 50.63 49.80 48.48 47.23 45.20 43.51 42.90 43.08 41.98
39.69 39.74 39.73 40.38 41.59 43.02 41.55 41.15 41.62 42.04 42.80 42.95 44.00 45.87 46.43 45.21 44.41 43.51 42.04 41.21 41.29 39.61
38.12 38.28 37.82 37.75 38.26 38.76 38.56 38.33 38.68 39.41 39.74 40.02 40.15 40.06 40.30 40.58 40.11 40.03 39.22 39.01 38.58 39.11
36.26 36.73 36.83 37.50 37.80 38.24 38.56 38.48 39.27 39.69 39.50 39.06 38.94 38.59 38.65 38.49 38.06 37.81 37.86 38.08 38.12 37.73
36.24 36.94 37.36 37.53 37.87 38.79 38.94 38.67 38.94 38.68 38.73 38.96 39.18 39.04 38.09 37.91 37.25 36.57 35.96 35.97 35.93 35.75
36.65 37.26 37.16 37.73 37.79 38.57 38.41 38.53 38.73 38.61 38.84 39.00 39.93 41.25 40.41 37.59 35.97 35.87 35.34 33.87 33.96 35.44
36.62 36.98 37.05 37.85 38.05 37.63 37.43 37.85 37.60 37.91 38.21 38.29 39.52 40.96 40.04 37.88 33.45 33.12 32.95 32.99 32.06 30.83
36.71 36.61 37.80 37.52 37.00 37.02 37.47 37.03 37.19 37.34 37.64 37.72 38.37 39.29 37.74 36.35 32.64 31.67 29.79 27.70 26.63 27.02
37.54 36.40 36.53 35.81 35.40 35.94 35.88 35.20 34.64 35.58 35.95 36.68 37.21 38.35 37.09 31.15 27.59 27.44 26.46 26.96 26.75 27.81
37.26 36.42 35.50 35.31 34.09 34.04 34.90 34.13 33.98 33.13 33.66 36.75 32.69 36.74 35.02 30.18 27.98 26.12 27.11 27.53 28.66 33.70
36.65 35.97 35.55 34.92 34.52 33.90 33.10 32.28 31.32 30.59 29.96 29.46 30.51 32.04 34.70 33.08 27.29 26.73 25.48 25.92 25.62 26.85

GFSNIL_sfc_wetblb_093.txt.gz
Wetbulb
54.84 56.80 56.89 55.70 56.30 56.94 57.37 58.21 59.01 60.05 61.88 62.68 63.02 62.78 61.53 60.55 60.17 59.50 59.53 58.87 58.83 58.72
49.64 50.29 49.88 49.97 50.51 51.15 51.99 54.53 56.87 57.73 58.75 59.42 61.24 61.80 61.83 61.13 60.63 59.98 60.26 59.73 58.42 56.01
48.25 48.84 49.69 50.24 50.76 51.61 52.50 53.28 54.94 56.45 57.08 57.67 57.78 59.59 60.07 57.93 56.27 54.67 51.51 51.27 51.16 49.67
45.71 46.29 47.37 48.43 49.13 49.97 49.97 50.54 51.24 51.77 52.49 53.00 53.56 53.98 52.54 51.00 49.69 49.01 47.86 47.23 47.47 46.31
43.77 44.06 44.59 45.00 45.64 46.51 45.32 45.16 45.96 46.87 47.35 47.27 47.99 49.68 49.96 48.80 47.69 46.05 46.73 44.62 43.87 42.78
41.72 42.21 41.96 42.22 42.36 42.82 42.99 42.69 43.29 44.26 44.11 43.96 44.40 44.84 45.42 44.96 44.31 44.01 43.34 43.23 42.92 42.28
40.36 40.65 40.70 40.94 41.18 41.63 41.73 41.82 42.13 42.33 42.24 42.14 42.08 42.14 42.20 42.09 41.56 41.18 40.78 40.91 41.05 40.59
39.27 39.67 40.06 40.12 40.27 40.37 40.62 40.70 40.90 40.80 40.94 41.34 41.37 40.96 40.73 40.38 39.80 39.17 38.34 38.16 37.98 38.40
38.92 39.15 39.31 39.63 39.61 39.78 39.83 40.12 40.25 40.07 40.46 40.78 41.01 41.77 41.17 39.34 38.03 37.69 37.08 35.49 36.35 38.80
38.50 38.56 38.98 39.25 39.37 39.04 39.01 39.55 39.11 39.52 40.30 40.51 41.23 42.15 41.14 39.05 34.42 33.97 33.73 34.15 34.48 33.86
38.20 38.15 38.64 38.88 38.44 38.23 38.39 38.24 38.20 38.29 38.62 38.99 39.76 40.88 39.95 38.06 35.64 34.71 33.03 32.10 32.01 31.85
38.35 37.68 37.87 37.54 36.79 37.24 37.26 36.78 36.36 37.31 37.68 37.48 37.92 38.94 38.37 34.49 32.62 30.50 29.54 30.46 31.76 33.06
38.67 37.98 37.17 36.74 35.31 35.24 36.35 35.76 36.03 35.41 36.41 38.25 36.68 37.86 35.73 32.06 30.33 29.05 29.28 31.31 33.52 34.22
38.12 37.57 37.19 36.24 35.69 35.49 34.77 34.16 33.53 32.82 32.69 32.68 34.67 35.26 35.15 33.52 30.58 30.07 29.73 30.11 30.20 31.60

GFSNIL_sfc_wetblb_096.txt.gz
Wetbulb
65.15 65.23 64.67 65.13 63.77 63.71 63.08 63.57 63.47 64.67 65.15 65.09 64.66 64.23 64.57 63.84 63.64 62.86 62.27 61.90 62.06 61.74
56.85 57.44 57.45 56.92 57.79 58.02 57.13 57.73 59.16 60.01 61.04 61.85 62.77 63.25 63.04 62.73 62.42 62.05 62.04 62.29 62.00 61.16
53.29 53.34 53.58 53.69 53.71 54.36 55.25 55.97 56.96 57.99 58.58 59.07 59.76 60.47 60.66 61.43 61.63 61.71 59.11 58.17 59.24 55.38
51.90 52.12 52.64 53.00 53.61 53.95 54.20 54.75 55.14 55.64 56.13 56.46 56.78 57.45 57.61 57.90 55.80 55.31 52.15 51.52 51.31 50.66
50.48 50.91 51.06 51.04 51.23 51.87 51.48 51.66 52.17 52.92 52.69 52.75 53.30 53.98 54.23 52.70 50.95 49.17 48.51 47.80 49.70 47.41
49.18 49.57 49.52 49.34 49.37 49.80 49.93 49.93 50.06 50.53 50.49 50.28 49.90 50.07 50.46 50.00 47.55 47.16 46.89 48.06 46.10 46.22
47.26 47.45 47.24 47.60 47.81 47.90 48.10 48.35 48.18 48.45 48.19 48.16 48.31 48.57 48.40 46.43 45.56 44.90 44.40 45.09 46.09 44.92
45.77 46.04 46.26 46.03 45.70 45.80 46.03 45.99 45.92 46.02 45.92 46.26 46.59 45.92 45.91 46.15 46.35 45.38 43.41 43.17 42.26 42.48
44.47 44.66 44.96 45.11 45.11 45.14 44.95 44.99 44.90 44.55 44.47 44.47 43.56 42.05 42.45 42.88 41.80 41.17 40.48 39.23 40.24 40.44
43.68 43.51 43.82 44.01 44.02 44.00 44.05 44.25 43.44 43.05 42.74 42.83 42.89 42.75 42.16 40.72 36.04 34.97 34.99 36.45 37.36 37.09
43.34 43.15 43.12 43.06 42.85 42.93 42.37 41.37 41.17 41.14 41.27 41.15 41.55 42.00 41.06 39.50 37.52 36.88 36.51 36.51 36.08 36.70
43.06 42.48 42.25 42.23 41.30 41.18 39.99 39.13 38.91 39.47 39.42 38.99 39.25 40.75 39.97 37.57 36.13 34.64 34.23 34.55 35.29 35.46
42.21 40.69 40.69 40.99 39.44 38.78 39.56 37.76 38.20 37.88 38.48 38.84 37.87 39.22 38.43 37.61 35.68 33.32 32.97 34.63 35.35 35.72
40.99 40.18 40.86 40.87 39.98 38.83 37.66 36.63 36.56 35.92 36.17 36.69 37.52 36.94 36.67 35.00 34.03 32.98 32.85 33.07 33.25 34.26

GFSNIL_sfc_wetblb_099.txt.gz
Wetbulb
64.01 62.44 61.68 61.44 61.73 61.90 62.17 62.76 64.24 64.01 63.77 63.61 63.61 63.46 63.35 63.05 63.09 62.65 62.43 62.24 61.78 61.79
64.28 63.74 62.99 60.07 60.84 61.75 61.80 60.94 62.96 63.40 64.57 64.67 64.61 64.40 63.36 62.85 62.07 62.51 62.29 62.07 62.28 61.68
56.31 56.65 57.10 56.64 56.03 55.49 55.79 56.54 57.52 58.36 59.44 59.93 60.47 61.03 61.69 61.32 61.85 61.59 61.27 60.22 59.99 58.27
54.78 54.77 54.34 53.99 54.30 54.58 54.75 55.18 55.63 55.97 56.49 56.76 57.00 57.70 57.53 57.74 58.33 58.58 57.05 53.65 56.36 53.34
52.69 53.02 52.91 52.63 52.62 52.97 52.41 52.83 53.06 53.63 53.71 53.90 54.11 54.48 55.03 54.53 52.40 52.08 51.20 50.30 51.10 48.22
51.42 51.69 51.43 51.34 51.44 51.62 51.39 51.07 51.04 51.51 51.65 51.72 51.57 51.71 52.24 51.64 50.17 49.69 48.48 48.19 47.36 47.12
50.25 50.47 50.44 50.13 49.98 49.86 50.32 50.20 49.97 50.08 49.74 49.67 49.84 50.08 50.03 48.67 47.89 46.65 45.69 45.97 46.29 46.22
48.26 48.54 48.32 48.00 48.02 48.05 48.20 48.03 47.89 47.75 47.60 47.86 47.84 46.96 48.22 48.62 47.07 44.98 44.00 43.70 43.20 43.22
47.19 47.09 47.06 46.98 46.95 47.04 46.74 46.62 46.63 46.19 45.91 45.92 44.98 42.57 43.22 45.10 44.34 42.99 41.75 40.20 40.14 40.46
46.38 46.00 46.08 46.06 45.90 45.74 45.72 45.85 45.31 44.92 44.68 44.47 44.09 42.90 42.67 41.83 36.83 35.14 35.20 37.23 38.40 38.49
45.72 45.51 45.39 45.20 44.94 44.90 44.47 44.02 43.65 43.06 42.74 42.61 42.27 42.48 41.54 40.40 38.65 38.08 37.56 37.05 36.50 36.92
45.42 44.74 44.56 44.19 43.73 43.47 42.50 41.48 40.44 40.60 40.56 40.16 40.46 41.28 40.83 38.08 36.03 34.45 33.72 34.22 35.61 35.89
44.85 44.39 43.39 43.74 41.73 40.15 40.61 39.01 39.38 38.54 38.95 39.28 38.71 40.84 39.61 37.24 34.26 32.56 32.48 34.43 34.76 36.66
43.14 43.07 42.91 42.62 41.46 40.62 39.76 38.50 37.96 37.64 38.00 37.75 37.91 38.24 39.24 38.19 34.84 33.99 33.13 33.17 33.07 33.97

GFSNIL_sfc_wetblb_102.txt.gz
Wetbulb
59.26 58.96 58.90 59.01 58.86 59.03 60.38 61.59 62.71 62.57 62.50 62.33 62.34 62.39 62.45 62.22 61.95 62.12 61.07 60.89 60.93 60.96
59.50 59.26 59.42 59.52 59.42 59.66 59.27 60.54 61.90 62.03 62.35 62.48 62.58 62.85 62.53 61.54 61.04 61.10 61.49 61.23 61.06 60.82
56.73 58.21 57.61 57.09 55.33 55.61 55.57 56.71 58.84 59.47 59.98 60.07 60.13 59.94 60.53 60.40 60.51 60.34 60.18 59.78 59.72 59.25
54.13 53.86 53.43 53.65 53.94 54.01 54.27 54.74 55.34 55.46 56.15 55.67 55.86 55.51 54.88 54.43 54.11 54.44 54.57 55.47 56.18 56.51
50.50 50.99 50.65 50.72 51.37 51.62 50.09 50.87 51.35 52.03 51.94 51.88 51.96 52.10 52.32 52.12 51.17 50.64 51.59 51.94 51.73 50.95
48.24 48.30 47.88 48.52 48.71 49.08 48.75 48.25 49.06 49.96 49.73 49.82 49.72 49.62 49.66 49.60 49.01 49.43 49.09 48.99 48.94 48.08
47.18 46.20 46.26 46.39 46.82 46.74 47.67 47.22 47.05 47.05 47.27 47.27 47.61 47.86 47.82 47.04 47.02 46.50 46.04 46.43 46.89 46.67
44.84 44.75 44.67 45.14 45.15 45.01 44.40 44.59 45.45 44.76 44.71 44.85 44.86 44.04 43.50 45.60 44.33 43.24 42.92 43.11 42.86 42.39
44.32 44.30 44.46 43.72 44.02 43.46 43.17 43.05 43.25 42.86 42.97 42.66 43.32 43.74 43.90 43.87 41.07 41.23 41.36 39.73 39.59 40.86
43.72 43.70 43.55 43.36 43.14 42.72 42.06 42.17 41.70 41.62 41.89 41.04 40.75 43.23 43.13 42.57 36.70 34.99 35.17 37.15 38.23 38.56
43.10 42.74 42.58 42.28 41.72 40.97 40.49 39.91 39.69 39.17 39.27 39.91 40.66 43.12 42.27 41.21 38.20 37.89 37.62 37.23 36.94 36.95
42.75 41.96 41.79 40.93 39.74 39.35 38.51 37.21 37.61 38.84 38.40 36.99 40.09 41.87 41.55 38.29 36.02 34.69 34.17 35.32 36.27 35.65
42.22 41.42 40.34 39.90 37.85 38.94 39.74 38.63 38.50 37.84 35.39 38.47 36.86 41.52 40.31 37.03 34.17 32.13 32.09 33.09 34.91 37.29
40.76 40.06 39.78 38.86 37.79 37.28 38.94 38.16 37.33 36.21 34.73 34.49 36.17 39.08 40.44 38.72 34.17 32.69 31.93 32.05 31.91 32.53

GFSNIL_sfc_wetblb_105.txt.gz
Wetbulb
58.13 57.67 57.71 58.05 58.01 58.49 58.98 60.60 61.95 61.96 61.98 62.33 62.25 61.77 61.88 61.57 61.29 60.91 60.76 60.51 61.11 61.10
56.65 57.07 57.09 57.93 57.51 58.45 58.89 60.04 60.93 61.10 60.84 62.00 61.67 61.59 61.49 61.30 61.13 61.23 61.11 61.16 60.76 60.11
57.78 57.25 58.01 57.60 57.98 57.86 58.38 58.89 60.23 60.55 60.30 60.75 61.20 61.15 60.56 60.25 60.69 60.60 59.75 59.36 58.73 58.15
55.08 55.14 55.15 55.10 54.27 54.49 54.78 55.67 57.21 58.38 57.95 57.33 56.31 55.36 55.22 55.51 54.72 54.84 54.34 54.87 55.41 55.94
51.85 51.61 52.11 51.77 52.17 53.22 52.88 53.15 53.00 52.72 52.54 52.02 52.49 52.39 52.34 52.08 51.42 50.71 50.36 50.63 50.78 52.07
48.87 48.68 48.91 49.10 49.27 49.49 49.05 48.76 49.33 49.94 49.73 49.73 49.19 48.89 48.99 49.14 48.87 48.49 48.21 48.39 48.70 49.79
45.70 45.82 46.19 46.97 47.23 47.59 47.31 46.57 46.54 46.81 46.82 46.82 46.78 46.86 46.76 46.26 45.69 45.63 45.97 46.63 47.45 47.74
43.92 44.37 44.28 44.54 44.73 44.93 45.10 44.88 44.46 44.32 44.16 44.42 43.82 43.67 43.02 44.52 43.62 42.94 43.75 43.60 43.10 42.87
43.05 43.08 42.80 42.67 42.62 43.03 43.05 42.75 43.03 42.40 42.16 41.58 42.62 44.12 44.23 43.39 41.29 40.62 39.84 38.42 38.64 41.13
42.72 42.53 42.14 42.30 42.26 41.98 41.27 41.35 40.48 41.03 40.76 39.93 39.74 43.65 43.47 41.78 36.95 34.82 35.20 37.43 38.73 39.03
42.18 41.81 41.69 41.41 40.94 40.21 39.43 39.04 38.70 38.48 38.50 38.30 39.94 43.27 42.62 41.43 37.78 38.22 38.64 38.55 38.13 37.66
41.92 41.06 40.74 39.79 38.50 38.12 37.67 36.59 36.23 37.13 37.27 36.22 39.35 42.33 41.75 38.83 35.81 35.78 35.41 36.45 36.88 36.95
41.26 40.60 39.50 38.88 37.41 36.73 36.60 36.99 38.64 38.26 34.62 37.50 37.14 41.86 41.54 37.90 34.62 33.25 33.35 33.85 36.28 37.97
40.17 39.67 39.00 37.95 36.97 37.34 37.59 38.63 37.77 36.76 36.10 36.23 35.74 39.41 40.99 39.54 33.91 33.46 32.32 32.23 32.43 34.21

GFSNIL_sfc_wetblb_108.txt.gz
Wetbulb
58.45 58.67 58.37 58.47 59.02 59.33 59.35 59.71 60.27 60.59 60.51 61.04 61.12 61.05 61.29 61.23 60.75 60.78 60.11 59.99 60.00 59.97
56.50 56.41 56.21 56.03 56.47 56.86 57.10 58.57 59.32 60.05 59.73 60.63 60.61 60.57 60.48 60.15 59.92 60.15 60.14 60.23 60.57 60.38
55.65 55.48 55.79 55.92 56.09 55.99 56.43 57.08 57.99 59.38 59.81 59.67 59.77 60.37 59.99 59.56 59.84 59.54 59.47 59.88 60.12 60.10
54.87 55.36 55.50 55.78 56.14 56.44 56.63 57.16 57.72 58.94 58.58 58.08 58.06 57.56 56.98 55.91 55.99 56.43 55.62 55.22 55.43 55.69
53.18 54.43 54.22 54.53 53.73 53.69 53.67 54.00 54.94 55.15 54.29 53.41 52.47 52.36 52.53 51.97 52.00 52.07 51.47 50.57 50.31 50.17
49.93 50.02 49.91 50.61 49.92 49.97 49.58 49.72 50.94 50.95 50.66 50.10 50.33 49.30 48.87 47.98 48.02 47.48 46.96 46.62 46.87 47.88
46.64 47.21 47.58 47.13 46.99 46.83 46.74 46.61 46.76 47.08 47.06 46.62 46.36 46.85 46.38 45.58 45.07 44.68 44.55 44.73 45.16 46.34
44.66 44.82 44.56 44.35 44.37 44.74 44.66 44.27 44.28 44.25 43.73 43.82 43.77 43.54 42.94 44.26 43.22 42.75 42.23 42.02 42.37 43.34
43.07 42.97 42.54 42.18 42.10 42.23 41.98 41.89 42.26 41.80 41.96 41.12 42.37 44.67 44.88 43.75 40.50 40.66 40.35 39.18 38.43 39.32
42.15 41.79 41.48 41.51 41.42 40.96 40.36 40.39 39.80 39.94 40.40 39.92 39.72 44.12 44.01 41.88 37.73 34.38 33.93 34.98 37.30 39.85
41.72 41.36 41.06 40.77 40.10 39.15 38.67 38.46 37.92 37.94 38.02 37.78 39.29 43.45 42.94 42.05 38.71 38.87 37.71 36.97 37.63 38.29
41.56 40.49 39.95 39.16 38.09 37.48 37.24 36.21 35.87 36.39 36.17 35.81 37.07 42.64 42.14 39.41 36.72 35.73 36.18 36.80 37.11 37.54
40.66 40.11 38.90 38.22 36.93 36.24 36.10 36.30 36.43 36.23 34.74 36.67 35.18 41.28 41.85 38.88 33.90 31.90 32.97 34.29 36.15 38.94
39.85 39.26 38.56 37.51 36.29 36.21 36.02 36.36 36.49 37.28 37.54 33.81 35.57 38.08 42.28 40.87 33.75 32.64 32.01 32.22 33.25 34.71

GFSNIL_sfc_wetblb_111.txt.gz
Wetbulb
61.25 61.33 61.02 60.65 60.40 59.81 59.55 60.03 60.89 61.05 61.22 61.40 61.09 60.84 61.26 61.24 60.81 60.15 59.41 59.38 60.00 60.04
58.05 57.92 57.77 57.48 57.29 57.67 57.74 58.39 59.13 59.27 59.20 59.77 59.59 59.33 59.11 59.03 59.19 59.32 58.87 58.83 58.86 59.05
56.23 56.27 56.12 56.03 55.88 56.18 56.33 56.85 57.34 58.03 58.34 58.07 58.10 58.83 58.51 57.92 58.28 58.51 58.24 58.38 58.50 58.51
54.49 54.93 54.90 54.64 54.69 55.03 56.00 57.31 56.30 58.12 58.13 57.32 57.00 58.30 57.55 57.42 56.42 56.50 55.62 55.06 54.47 54.17
53.89 54.12 53.69 53.44 53.09 53.70 54.06 54.61 55.07 56.30 56.50 55.36 53.95 52.45 52.22 51.41 51.59 51.89 51.15 50.61 51.36 49.32
51.85 52.51 51.44 51.19 51.85 51.08 51.22 49.97 50.19 50.57 50.15 49.48 49.72 49.37 49.65 49.61 48.95 48.73 46.30 45.41 45.39 45.38
47.99 47.97 48.70 49.24 48.40 47.20 47.21 46.93 46.56 46.95 46.63 46.27 46.02 46.09 45.52 45.02 44.13 44.77 43.66 43.73 43.61 43.96
45.38 45.31 44.95 44.85 44.64 44.58 44.46 44.07 44.30 43.62 43.22 42.61 42.52 42.98 41.57 42.10 41.85 41.19 41.09 40.91 41.03 41.19
43.66 43.38 42.95 42.58 42.51 42.23 41.69 41.47 41.65 41.02 40.85 40.20 42.38 45.41 45.39 41.34 38.29 37.88 37.78 37.44 37.49 38.64
42.28 41.86 41.45 41.38 41.20 40.42 39.62 39.66 39.15 39.11 39.51 38.77 39.50 44.78 44.28 41.72 37.76 35.85 35.71 37.38 36.21 37.92
41.54 41.06 40.52 40.38 39.82 38.80 37.99 37.95 37.54 37.33 37.41 37.50 39.36 43.67 43.19 42.31 38.33 38.89 38.76 38.27 37.83 37.75
41.10 40.08 39.63 38.79 37.63 36.97 37.28 36.37 35.66 36.02 35.83 35.43 36.15 42.39 42.25 40.15 36.33 34.25 34.77 36.03 36.85 37.42
40.34 39.59 38.71 38.18 37.08 36.31 35.86 36.20 36.05 35.58 34.35 36.73 34.52 40.01 41.86 40.04 34.93 32.12 32.30 32.60 34.30 39.04
39.59 39.28 38.76 37.72 36.39 36.12 35.66 35.49 34.44 36.32 38.01 36.91 34.13 35.01 41.07 42.46 36.18 34.55 33.37 31.00 31.40 33.82

GFSNIL_sfc_wetblb_114.txt.gz
Wetbulb
61.47 61.54 62.12 61.59 62.01 62.96 62.82 63.20 63.57 63.07 63.52 63.20 62.61 62.54 62.33 61.51 61.02 60.35 59.67 59.27 59.48 59.47
62.43 62.48 61.67 62.03 61.99 61.66 60.26 60.07 61.27 61.32 61.13 60.96 60.11 59.79 59.83 58.28 57.64 57.75 57.55 58.25 58.27 58.47
58.99 58.83 58.58 58.37 57.82 57.52 57.28 57.88 58.25 58.39 58.45 58.36 58.09 58.35 57.85 56.85 56.86 56.90 57.53 57.70 57.56 57.78
56.79 56.20 55.90 55.85 55.61 55.80 55.86 56.05 55.64 56.18 56.48 56.53 56.33 56.89 56.98 56.74 57.26 56.85 55.57 53.86 52.72 52.01
54.84 54.62 54.55 54.15 54.04 54.72 54.15 54.10 54.72 55.67 56.05 56.06 54.48 54.74 55.18 53.25 51.66 51.74 51.50 50.25 49.54 48.06
52.71 52.81 52.24 52.18 52.14 52.49 51.92 51.38 51.93 51.66 50.38 50.07 50.77 50.53 50.31 50.31 49.47 48.32 46.90 45.12 44.91 44.33
49.62 49.69 49.45 49.09 48.90 48.63 48.58 47.92 47.67 47.36 46.90 46.83 46.86 46.35 45.57 44.69 43.74 43.32 42.90 42.55 42.46 42.02
46.72 46.22 45.88 45.50 45.07 45.25 45.15 44.74 44.33 43.73 42.75 42.34 42.69 42.68 41.96 42.15 41.07 40.48 39.90 39.52 39.59 39.45
45.01 43.93 43.28 43.32 42.55 42.31 41.77 41.75 41.74 40.96 40.60 40.68 42.90 46.01 44.56 40.70 39.29 39.57 39.34 38.38 37.20 37.43
42.60 42.11 41.65 41.51 41.14 40.28 39.55 39.27 38.85 38.87 39.02 38.59 40.40 45.11 43.40 41.18 37.81 35.83 36.82 37.91 35.47 37.16
41.33 41.42 40.92 40.13 39.17 38.15 37.64 37.60 37.28 37.17 37.23 37.25 40.25 44.19 43.35 41.33 37.92 38.81 38.22 37.40 36.33 36.03
40.43 39.21 38.89 38.13 37.20 36.70 36.74 35.88 35.54 35.90 35.63 35.43 36.00 42.99 42.55 38.79 34.34 33.67 33.43 34.62 34.75 35.24
39.62 38.96 38.01 37.22 36.12 35.38 35.72 35.75 36.01 34.83 34.03 38.51 34.22 40.23 42.14 40.47 34.50 31.68 32.33 34.16 34.73 38.71
39.04 38.76 38.28 36.91 36.25 36.07 35.65 35.45 34.77 35.35 36.13 37.33 34.65 34.97 41.14 42.17 35.77 35.43 34.38 33.71 33.60 34.19

GFSNIL_sfc_wetblb_117.txt.gz
Wetbulb
60.17 59.88 60.36 61.72 61.91 61.73 61.84 62.33 63.01 63.03 63.26 63.13 63.19 63.45 63.27 62.90 62.55 61.66 60.54 59.77 59.77 59.55
60.56 60.44 61.33 61.29 61.58 61.95 62.35 61.89 63.02 63.65 63.22 63.50 63.12 62.85 62.23 61.09 61.46 61.26 60.70 60.52 60.54 60.22
61.06 61.74 61.30 61.89 60.73 59.76 60.63 61.23 61.80 62.06 62.12 60.80 60.60 60.70 60.62 60.12 59.88 59.71 59.86 59.56 59.02 57.88
58.79 59.15 59.56 60.03 59.36 59.03 59.11 60.03 59.79 60.01 60.11 59.65 59.29 59.42 59.07 58.54 58.72 57.81 56.81 55.62 54.55 52.62
57.03 57.25 57.11 56.54 56.69 56.98 56.71 56.99 57.34 57.63 57.87 58.03 58.16 58.70 58.60 55.62 55.56 55.08 53.00 51.00 50.24 48.98
55.28 55.52 55.18 54.63 54.93 55.33 54.49 54.64 55.77 56.42 56.04 54.84 54.13 54.36 54.73 54.06 51.69 50.43 49.38 48.18 48.57 47.66
53.56 53.74 53.07 52.50 52.36 52.58 52.70 51.86 51.58 51.29 50.79 50.69 50.37 49.80 49.21 48.30 47.89 47.10 46.54 46.23 45.88 45.48
50.88 50.80 49.65 48.97 48.90 48.66 49.22 48.55 47.79 46.72 46.13 46.19 46.69 45.93 46.24 45.79 45.52 44.99 44.03 43.30 43.00 43.27
47.83 47.50 46.90 46.41 45.58 46.21 45.46 45.48 45.07 44.22 44.10 44.46 44.82 45.30 44.95 43.57 42.77 42.21 41.99 41.37 40.72 41.71
45.48 45.07 44.80 44.58 44.13 43.62 43.66 43.62 42.88 42.83 43.38 43.85 44.18 44.14 43.74 42.73 40.35 37.54 38.57 40.63 39.97 40.58
43.82 43.34 43.32 42.71 42.39 41.68 41.97 41.96 41.65 41.28 41.48 42.61 43.82 44.31 42.87 41.59 41.13 40.94 40.85 40.56 40.24 40.32
42.61 41.75 41.60 41.18 40.85 40.35 40.38 39.81 39.48 39.62 39.67 41.11 42.85 43.85 42.83 40.04 38.75 37.82 38.00 38.33 38.78 39.22
41.78 41.20 40.68 40.10 39.26 38.95 39.56 38.76 38.78 37.72 38.38 39.39 39.63 43.19 42.92 40.57 37.88 37.35 37.27 37.41 37.85 38.71
40.91 40.60 40.28 39.49 39.20 38.96 38.72 38.43 38.12 38.04 38.76 39.36 38.27 39.00 42.68 42.53 39.03 38.09 37.11 36.88 36.79 36.67